KC5DAQ-24 Weather Reports


Display with metric or nautical units.
time (UTC)temp
F
wind
direction
speed
MPH
gust
MPH
rain 1hr
in
rain 24hr
in
rain mn
in
humidity
%
barometer
mb
20260903035831 85 166 4.0 10.0 0.00 0.00 0.00 84 1013.0
20260903035702 85 166 4.0 10.0 0.00 0.00 0.00 84 1013.1
20260903035603 85 154 5.0 10.0 0.00 0.00 0.00 84 1013.0
20260903035504 85 164 5.0 10.0 0.00 0.00 0.00 84 1013.1
20260903035402 85 202 5.0 10.0 0.00 0.00 0.00 84 1013.1
20260903035302 85 159 5.0 11.0 0.00 0.00 0.00 84 1013.0
20260903035201 85 189 4.0 11.0 0.00 0.00 0.00 84 1013.0
20260903035103 85 159 4.0 11.0 0.00 0.00 0.00 84 1013.0
20260903035002 85 193 6.0 11.0 0.00 0.00 0.00 84 1013.0
20260903034903 85 173 4.0 11.0 0.00 0.00 0.00 84 1013.0
20260903034802 85 173 4.0 11.0 0.00 0.00 0.00 84 1013.0
20260903034703 85 173 4.0 11.0 0.00 0.00 0.00 84 1012.9
20260903034602 85 173 4.0 11.0 0.00 0.00 0.00 84 1013.0
20260903034502 85 185 7.0 11.0 0.00 0.00 0.00 84 1012.9
20260903034400 85 175 7.0 11.0 0.00 0.00 0.00 84 1012.9
20260903034301 85 176 5.0 11.0 0.00 0.00 0.00 84 1012.9
20260903034200 85 176 5.0 11.0 0.00 0.00 0.00 84 1012.9
20260903034100 85 176 6.0 11.0 0.00 0.00 0.00 84 1012.8
20260903034001 85 189 4.0 7.0 0.00 0.00 0.00 84 1012.8
20260903033900 85 137 4.0 7.0 0.00 0.00 0.00 84 1012.9
20260903033801 85 206 4.0 7.0 0.00 0.00 0.00 84 1012.9
20260903033700 85 197 3.0 7.0 0.00 0.00 0.00 84 1012.8
20260903033601 85 183 2.0 6.0 0.00 0.00 0.00 84 1012.8
20260903033500 85 130 4.0 7.0 0.00 0.00 0.00 84 1012.9
20260903033401 85 133 3.0 7.0 0.00 0.00 0.00 84 1012.9
20260903033244 85 134 3.0 9.0 0.00 0.00 0.00 84 1012.9
20260903033144 85 151 2.0 9.0 0.00 0.00 0.00 84 1012.9
20260903033034 85 176 2.0 9.0 0.00 0.00 0.00 84 1012.8
20260903032932 85 186 4.0 9.0 0.00 0.00 0.00 84 1012.9
20260903032834 85 183 3.0 9.0 0.00 0.00 0.00 84 1012.9
20260903032731 85 173 2.0 9.0 0.00 0.00 0.00 84 1013.0
20260903032631 85 175 3.0 9.0 0.00 0.00 0.00 84 1012.9
20260903032532 85 173 4.0 11.0 0.00 0.00 0.00 84 1012.9
20260903032432 85 159 3.0 11.0 0.00 0.00 0.00 84 1012.9
20260903032332 85 134 2.0 11.0 0.00 0.00 0.00 84 1012.8
20260903032233 85 148 3.0 11.0 0.00 0.00 0.00 84 1012.8
20260903032132 85 173 3.0 11.0 0.00 0.00 0.00 84 1012.8
20260903032032 85 183 3.0 11.0 0.00 0.00 0.00 84 1012.7
20260903031931 85 175 3.0 11.0 0.00 0.00 0.00 84 1012.7
20260903031831 85 172 3.0 11.0 0.00 0.00 0.00 84 1012.8
20260903031733 85 162 6.0 11.0 0.00 0.00 0.00 84 1012.7
20260903031632 85 200 6.0 11.0 0.00 0.00 0.00 84 1012.8
20260903031532 85 123 5.0 9.0 0.00 0.00 0.00 84 1012.7
20260903031432 85 173 5.0 9.0 0.00 0.00 0.00 84 1012.7
20260903031331 85 190 4.0 9.0 0.00 0.00 0.00 84 1012.7
20260903031231 85 180 2.0 9.0 0.00 0.00 0.00 84 1012.7
20260903031132 85 176 1.0 9.0 0.00 0.00 0.00 84 1012.7
20260903031032 86 176 3.0 9.0 0.00 0.00 0.00 84 1012.7
20260903030932 85 183 5.0 9.0 0.00 0.00 0.00 84 1012.7
20260903030833 85 185 4.0 9.0 0.00 0.00 0.00 84 1012.6
20260903030733 85 204 1.0 7.0 0.00 0.00 0.00 84 1012.7
20260903030631 85 209 1.0 10.0 0.00 0.00 0.00 84 1012.6
20260903030531 85 179 2.0 12.0 0.00 0.00 0.00 84 1012.6
20260903030433 85 178 2.0 12.0 0.00 0.00 0.00 84 1012.6
20260903030331 85 171 3.0 12.0 0.00 0.00 0.00 84 1012.6
20260903030233 85 180 3.0 12.0 0.00 0.00 0.00 83 1012.6
20260903030131 85 124 3.0 12.0 0.00 0.00 0.00 84 1012.6
20260903030033 85 171 4.0 12.0 0.00 0.00 0.00 83 1012.6
20260903025931 85 190 4.0 12.0 0.00 0.00 0.00 84 1012.5
20260903025831 85 117 4.0 12.0 0.00 0.00 0.00 83 1012.5
20260903025731 85 155 5.0 12.0 0.00 0.00 0.00 83 1012.5
20260903025631 85 192 5.0 12.0 0.00 0.00 0.00 83 1012.5
20260903025532 86 175 5.0 11.0 0.00 0.00 0.00 83 1012.5
20260903025431 85 190 5.0 11.0 0.00 0.00 0.00 83 1012.4
20260903025333 85 0 4.0 9.0 0.00 0.00 0.00 83 1012.4
20260903025232 85 128 3.0 9.0 0.00 0.00 0.00 83 1012.4
20260903025132 85 145 3.0 9.0 0.00 0.00 0.00 83 1012.5
20260903025031 86 173 4.0 9.0 0.00 0.00 0.00 83 1012.4
20260903024932 85 179 4.0 9.0 0.00 0.00 0.00 83 1012.4
20260903024831 85 130 5.0 10.0 0.00 0.00 0.00 83 1012.4
20260903024734 86 171 4.0 10.0 0.00 0.00 0.00 83 1012.3
20260903024632 86 159 3.0 10.0 0.00 0.00 0.00 83 1012.4
20260903024531 86 178 4.0 11.0 0.00 0.00 0.00 83 1012.4
20260903024433 86 182 4.0 11.0 0.00 0.00 0.00 83 1012.3
20260903024334 86 121 2.0 11.0 0.00 0.00 0.00 83 1012.3
20260903024232 86 138 1.0 11.0 0.00 0.00 0.00 83 1012.3
20260903024131 86 138 2.0 11.0 0.00 0.00 0.00 83 1012.3
20260903024030 86 166 4.0 11.0 0.00 0.00 0.00 83 1012.3
20260903023931 86 87 5.0 11.0 0.00 0.00 0.00 83 1012.3
20260903023832 86 157 5.0 11.0 0.00 0.00 0.00 83 1012.2
20260903023732 86 175 6.0 11.0 0.00 0.00 0.00 83 1012.3
20260903023632 86 168 5.0 11.0 0.00 0.00 0.00 83 1012.3
20260903023531 86 173 4.0 10.0 0.00 0.00 0.00 83 1012.3
20260903023432 86 175 4.0 10.0 0.00 0.00 0.00 83 1012.3
20260903023332 86 172 5.0 10.0 0.00 0.00 0.00 83 1012.3
20260903023231 86 168 4.0 10.0 0.00 0.00 0.00 83 1012.4
20260903023129 86 186 4.0 10.0 0.00 0.00 0.00 82 1012.3
20260903023028 86 155 5.0 10.0 0.00 0.00 0.00 82 1012.4
20260903022927 86 162 6.0 10.0 0.00 0.00 0.00 82 1012.3
20260903022821 86 134 2.0 10.0 0.00 0.00 0.00 82 1012.4
20260903022714 86 140 2.0 10.0 0.00 0.00 0.00 82 1012.3
20260903022610 86 134 2.0 10.0 0.00 0.00 0.00 82 1012.2
20260903022505 86 161 2.0 10.0 0.00 0.00 0.00 82 1012.2
20260903022405 86 176 4.0 10.0 0.00 0.00 0.00 82 1012.2
20260903022306 86 172 4.0 10.0 0.00 0.00 0.00 82 1012.1
20260903022203 86 154 5.0 10.0 0.00 0.00 0.00 82 1012.0
20260903022059 86 142 5.0 10.0 0.00 0.00 0.00 82 1012.0
20260903021959 86 149 4.0 10.0 0.00 0.00 0.00 81 1011.9
20260903021857 86 121 4.0 9.0 0.00 0.00 0.00 81 1011.9
20260903021758 86 149 4.0 9.0 0.00 0.00 0.00 81 1011.8
20260903021657 86 141 4.0 9.0 0.00 0.00 0.00 81 1011.8
20260903021558 86 164 4.0 9.0 0.00 0.00 0.00 81 1011.8
20260903021457 86 165 3.0 9.0 0.00 0.00 0.00 81 1011.7
20260903021358 86 157 3.0 9.0 0.00 0.00 0.00 81 1011.7
20260903021258 86 172 2.0 9.0 0.00 0.00 0.00 81 1011.8
20260903021158 86 179 2.0 9.0 0.00 0.00 0.00 81 1011.7
20260903021058 86 186 1.0 9.0 0.00 0.00 0.00 80 1011.7
20260903021000 86 188 0.0 9.0 0.00 0.00 0.00 80 1011.7
20260903020900 86 197 4.0 9.0 0.00 0.00 0.00 80 1011.8
20260903020758 86 197 4.0 9.0 0.00 0.00 0.00 80 1011.7
20260903020658 86 197 4.0 9.0 0.00 0.00 0.00 80 1011.7
20260903020559 86 199 4.0 9.0 0.00 0.00 0.00 80 1011.7
20260903020457 86 164 4.0 9.0 0.00 0.00 0.00 80 1011.7
20260903020358 86 182 2.0 7.0 0.00 0.00 0.00 80 1011.7
20260903020259 86 182 2.0 6.0 0.00 0.00 0.00 80 1011.7
20260903020159 86 183 3.0 6.0 0.00 0.00 0.00 80 1011.8
20260903020058 87 154 3.0 6.0 0.00 0.00 0.00 79 1011.8
20260903015958 87 154 3.0 7.0 0.00 0.00 0.00 79 1011.8
20260903015859 87 154 3.0 7.0 0.00 0.00 0.00 79 1011.8
20260903015758 87 154 3.0 7.0 0.00 0.00 0.00 79 1011.8
20260903015657 87 154 3.0 7.0 0.00 0.00 0.00 79 1011.8
20260903015558 87 154 3.0 7.0 0.00 0.00 0.00 79 1011.8
20260903015456 87 154 3.0 7.0 0.00 0.00 0.00 79 1011.8
20260903015357 87 154 3.0 7.0 0.00 0.00 0.00 79 1011.9
20260903015256 87 154 3.0 7.0 0.00 0.00 0.00 79 1011.8
20260903015157 87 154 3.0 7.0 0.00 0.00 0.00 79 1011.9
20260903015056 87 176 4.0 7.0 0.00 0.00 0.00 79 1011.9
20260903014957 87 151 4.0 7.0 0.00 0.00 0.00 78 1011.8
20260903014856 87 182 4.0 7.0 0.00 0.00 0.00 78 1011.8
20260903014754 87 148 4.0 6.0 0.00 0.00 0.00 78 1011.9
20260903014655 87 175 5.0 6.0 0.00 0.00 0.00 77 1011.7
20260903014556 87 173 3.0 6.0 0.00 0.00 0.00 77 1011.8
20260903014457 87 164 4.0 6.0 0.00 0.00 0.00 77 1011.7
20260903014355 87 164 4.0 6.0 0.00 0.00 0.00 77 1011.7
20260903014257 87 164 4.0 6.0 0.00 0.00 0.00 77 1011.7
20260903014155 87 175 4.0 6.0 0.00 0.00 0.00 77 1011.6
20260903014056 0 0.0 0.0 0.00 0.00 0.00 1011.6
20260903013954 0 0.0 0.0 0.00 0.00 0.00 1011.6
20260903013854 0 0.0 0.0 0.00 0.00 0.00 1011.6
20260903013754 0 0.0 0.0 0.00 0.00 0.00 1011.6
20260903013654 0 0.0 0.0 0.00 0.00 0.00 1011.6
20260903013555 0 0.0 0.0 0.00 0.00 0.00 1011.6
20260903013452 0 0.0 0.0 0.00 0.00 0.00 1011.6
20260903013352 0 0.0 0.0 0.00 0.00 0.00 1011.6
20260903013252 0 0.0 0.0 0.00 0.00 0.00 1011.6
20260903013151 0 0.0 0.0 0.00 0.00 0.00 1011.5
20260903013052 0 0.0 0.0 0.00 0.00 0.00 1011.6
20260903012951 0 0.0 0.0 0.00 0.00 0.00 1011.6
20260903012850 0 0.0 0.0 0.00 0.00 0.00 1011.6
20260903012751 0 0.0 0.0 0.00 0.00 0.00 1011.6
20260903012649 0 0.0 0.0 0.00 0.00 0.00 1011.6
20260903012551 0 0.0 0.0 0.00 0.00 0.00 1011.6
20260903012448 0 0.0 0.0 0.00 0.00 0.00 1011.5
20260903012348 0 152 5.0 3.0 0.00 0.00 0.00 1011.5
20260903012249 88 152 5.0 6.0 0.00 0.00 0.00 72 1011.5
20260903012148 88 152 5.0 12.0 0.00 0.00 0.00 72 1011.5
20260903012048 88 152 5.0 12.0 0.00 0.00 0.00 72 1011.5
20260903011932 88 152 5.0 12.0 0.00 0.00 0.00 72 1011.4
20260903011832 88 152 5.0 12.0 0.00 0.00 0.00 72 1011.4
20260903011732 88 152 5.0 12.0 0.00 0.00 0.00 72 1011.4
20260903011632 88 152 5.0 12.0 0.00 0.00 0.00 72 1011.3
20260903011532 88 152 5.0 12.0 0.00 0.00 0.00 72 1011.4
20260903011432 88 152 5.0 12.0 0.00 0.00 0.00 72 1011.3
20260903011332 88 169 5.0 12.0 0.00 0.00 0.00 72 1011.2
20260903011230 88 195 5.0 11.0 0.00 0.00 0.00 72 1011.2
20260903011132 88 173 4.0 11.0 0.00 0.00 0.00 72 1011.1
20260903011032 88 148 5.0 11.0 0.00 0.00 0.00 71 1011.1
20260903010932 88 176 6.0 11.0 0.00 0.00 0.00 71 1011.1
20260903010833 88 200 4.0 10.0 0.00 0.00 0.00 71 1011.1
20260903010732 88 180 4.0 10.0 0.00 0.00 0.00 71 1011.1
20260903010632 89 172 5.0 11.0 0.00 0.00 0.00 69 1011.0
20260903010533 89 172 5.0 11.0 0.00 0.00 0.00 69 1011.0
20260903010433 89 172 5.0 11.0 0.00 0.00 0.00 69 1011.0
20260903010333 89 172 5.0 11.0 0.00 0.00 0.00 69 1010.9
20260903010230 89 207 5.0 11.0 0.00 0.00 0.00 69 1010.9
20260903010130 89 169 6.0 11.0 0.00 0.00 0.00 69 1011.0
20260903010034 89 206 4.0 11.0 0.00 0.00 0.00 69 1010.8
20260903005933 89 149 4.0 11.0 0.00 0.00 0.00 68 1010.9
20260903005832 89 183 6.0 11.0 0.00 0.00 0.00 68 1010.8
20260903005733 89 212 7.0 11.0 0.00 0.00 0.00 68 1010.8
20260903005633 89 234 7.0 11.0 0.00 0.00 0.00 68 1010.8
20260903005532 89 176 6.0 11.0 0.00 0.00 0.00 68 1010.7
20260903005432 89 176 6.0 14.0 0.00 0.00 0.00 68 1010.8
20260903005332 89 173 5.0 14.0 0.00 0.00 0.00 67 1010.7
20260903005232 89 173 5.0 15.0 0.00 0.00 0.00 67 1010.8
20260903005133 89 173 5.0 15.0 0.00 0.00 0.00 67 1010.7
20260903005033 89 173 5.0 15.0 0.00 0.00 0.00 67 1010.7
20260903004914 89 173 5.0 15.0 0.00 0.00 0.00 67 1010.8
20260903004813 89 188 5.0 15.0 0.00 0.00 0.00 67 1010.8
20260903004709 89 189 6.0 15.0 0.00 0.00 0.00 67 1010.8
20260903004609 89 168 6.0 15.0 0.00 0.00 0.00 67 1010.8
20260903004508 89 212 7.0 15.0 0.00 0.00 0.00 66 1010.8
20260903004407 89 168 6.0 15.0 0.00 0.00 0.00 66 1010.8
20260903004303 89 216 6.0 11.0 0.00 0.00 0.00 65 1010.8
20260903004204 90 179 6.0 11.0 0.00 0.00 0.00 65 1010.9
20260903004103 90 179 6.0 11.0 0.00 0.00 0.00 65 1010.9
20260903004005 90 179 6.0 11.0 0.00 0.00 0.00 65 1010.9
20260903003903 90 179 6.0 11.0 0.00 0.00 0.00 65 1010.8
20260903003804 90 179 6.0 11.0 0.00 0.00 0.00 65 1010.8
20260903003703 90 179 6.0 11.0 0.00 0.00 0.00 65 1010.8
20260903003602 90 173 5.0 10.0 0.00 0.00 0.00 65 1010.8
20260903003504 90 166 4.0 9.0 0.00 0.00 0.00 64 1010.8
20260903003404 90 168 4.0 9.0 0.00 0.00 0.00 64 1010.7
20260903003303 90 175 4.0 9.0 0.00 0.00 0.00 64 1010.7
20260903003203 90 182 4.0 9.0 0.00 0.00 0.00 64 1010.7
20260903003103 90 182 4.0 9.0 0.00 0.00 0.00 64 1010.8
20260903003002 90 173 4.0 12.0 0.00 0.00 0.00 64 1010.8
20260903002904 90 200 4.0 12.0 0.00 0.00 0.00 64 1010.9
20260903002802 90 206 4.0 12.0 0.00 0.00 0.00 64 1010.7
20260903002703 90 179 4.0 12.0 0.00 0.00 0.00 64 1010.8
20260903002602 90 214 4.0 12.0 0.00 0.00 0.00 64 1010.7
20260903002502 90 212 4.0 12.0 0.00 0.00 0.00 64 1010.7
20260903002402 90 180 3.0 12.0 0.00 0.00 0.00 64 1010.7
20260903002306 90 171 3.0 12.0 0.00 0.00 0.00 64 1010.6
20260903002202 90 216 5.0 12.0 0.00 0.00 0.00 63 1010.6
20260903002103 90 204 6.0 12.0 0.00 0.00 0.00 63 1010.7
20260903002003 90 176 5.0 12.0 0.00 0.00 0.00 64 1010.6
20260903001904 90 186 4.0 12.0 0.00 0.00 0.00 64 1010.6
20260903001802 90 207 4.0 12.0 0.00 0.00 0.00 64 1010.6
20260903001704 90 203 4.0 12.0 0.00 0.00 0.00 64 1010.6
20260903001602 90 166 5.0 12.0 0.00 0.00 0.00 64 1010.6
20260903001503 90 161 6.0 12.0 0.00 0.00 0.00 64 1010.5
20260903001405 91 166 5.0 12.0 0.00 0.00 0.00 64 1010.5
20260903001302 91 176 4.0 12.0 0.00 0.00 0.00 64 1010.5
20260903001204 91 183 4.0 12.0 0.00 0.00 0.00 64 1010.5
20260903001103 91 204 5.0 12.0 0.00 0.00 0.00 64 1010.4
20260903001003 91 188 5.0 12.0 0.00 0.00 0.00 63 1010.3
20260903000902 91 148 4.0 12.0 0.00 0.00 0.00 63 1010.3
20260903000802 91 196 5.0 12.0 0.00 0.00 0.00 63 1010.2
20260903000703 91 172 6.0 12.0 0.00 0.00 0.00 63 1010.2
20260903000604 91 182 8.0 11.0 0.00 0.00 0.00 63 1010.3
20260903000504 91 178 3.0 5.0 0.00 0.00 0.00 63 1010.2
20260903000403 91 178 3.0 5.0 0.00 0.00 0.00 63 1010.2
20260903000303 91 178 3.0 5.0 0.00 0.00 0.00 63 1010.3
20260903000145 91 182 3.0 4.0 0.00 0.00 0.00 63 1010.3
20260903000045 0 0.0 0.0 0.00 0.00 0.00 1010.3
20260902235945 0 0.0 0.0 0.00 0.00 0.00 1010.3
20260902235845 0 0.0 0.0 0.00 0.00 0.00 1010.3
20260902235743 0 0.0 0.0 0.00 0.00 0.00 1010.2
20260902235643 0 0.0 0.0 0.00 0.00 0.00 1010.2
20260902235542 0 0.0 0.0 0.00 0.00 0.00 1010.2
20260902235443 0 0.0 0.0 0.00 0.00 0.00 1010.2
20260902235343 0 0.0 0.0 0.00 0.00 0.00 1010.1
20260902235241 0 0.0 0.0 0.00 0.00 0.00 1010.1
20260902235140 92 196 6.0 7.0 0.00 0.00 0.00 62 1010.1
20260902235041 92 196 6.0 7.0 0.00 0.00 0.00 62 1010.1
20260902234941 92 196 6.0 7.0 0.00 0.00 0.00 62 1010.1
20260902234840 92 196 6.0 7.0 0.00 0.00 0.00 62 1010.1
20260902234739 92 196 6.0 7.0 0.00 0.00 0.00 62 1010.1
20260902234639 92 196 6.0 14.0 0.00 0.00 0.00 62 1010.1
20260902234532 92 196 6.0 14.0 0.00 0.00 0.00 62 1010.1
20260902234432 92 196 6.0 14.0 0.00 0.00 0.00 62 1010.1
20260902234332 92 196 6.0 14.0 0.00 0.00 0.00 62 1010.1
20260902234232 92 196 6.0 14.0 0.00 0.00 0.00 62 1010.1
20260902234132 92 216 5.0 14.0 0.00 0.00 0.00 62 1010.1
20260902234032 92 216 5.0 14.0 0.00 0.00 0.00 62 1010.0
20260902233933 92 188 7.0 14.0 0.00 0.00 0.00 62 1010.0
20260902233831 92 159 6.0 14.0 0.00 0.00 0.00 62 1010.0
20260902233731 92 199 6.0 14.0 0.00 0.00 0.00 62 1010.0
20260902233632 92 157 6.0 14.0 0.00 0.00 0.00 62 1010.0
20260902233531 92 203 6.0 14.0 0.00 0.00 0.00 62 1010.1
20260902233432 92 165 7.0 14.0 0.00 0.00 0.00 62 1010.1
20260902233330 92 207 5.0 14.0 0.00 0.00 0.00 63 1010.1
20260902233232 92 189 4.0 12.0 0.00 0.00 0.00 63 1010.0
20260902233132 92 162 5.0 12.0 0.00 0.00 0.00 62 1010.1
20260902233034 92 173 6.0 14.0 0.00 0.00 0.00 62 1010.1
20260902232932 92 178 4.0 14.0 0.00 0.00 0.00 63 1010.1
20260902232831 92 178 6.0 14.0 0.00 0.00 0.00 63 1010.1
20260902232732 92 228 8.0 14.0 0.00 0.00 0.00 62 1010.2
20260902232632 93 227 5.0 14.0 0.00 0.00 0.00 63 1010.1
20260902232532 93 182 7.0 14.0 0.00 0.00 0.00 63 1010.1
20260902232432 93 182 7.0 14.0 0.00 0.00 0.00 63 1010.1
20260902232332 93 182 7.0 14.0 0.00 0.00 0.00 63 1010.1
20260902232232 93 207 7.0 14.0 0.00 0.00 0.00 63 1010.1
20260902232132 93 175 6.0 14.0 0.00 0.00 0.00 63 1010.1
20260902232031 93 206 4.0 9.0 0.00 0.00 0.00 63 1010.1
20260902231933 93 207 6.0 10.0 0.00 0.00 0.00 63 1010.1
20260902231833 93 207 6.0 13.0 0.00 0.00 0.00 63 1010.2
20260902231730 93 206 6.0 13.0 0.00 0.00 0.00 63 1010.1
20260902231632 93 165 6.0 13.0 0.00 0.00 0.00 62 1010.1
20260902231532 93 193 3.0 13.0 0.00 0.00 0.00 63 1010.1
20260902231432 93 193 3.0 13.0 0.00 0.00 0.00 63 1010.2
20260902231332 93 193 3.0 13.0 0.00 0.00 0.00 63 1010.1
20260902231232 93 193 3.0 13.0 0.00 0.00 0.00 63 1010.1
20260902231110 93 204 6.0 13.0 0.00 0.00 0.00 62 1010.0
20260902231008 93 168 5.0 13.0 0.00 0.00 0.00 62 1010.0
20260902230906 93 148 4.0 10.0 0.00 0.00 0.00 62 1010.0
20260902230805 93 159 4.0 10.0 0.00 0.00 0.00 62 1009.9
20260902230703 93 186 4.0 10.0 0.00 0.00 0.00 62 1009.9
20260902230603 93 179 6.0 10.0 0.00 0.00 0.00 62 1010.0
20260902230504 93 210 7.0 10.0 0.00 0.00 0.00 62 1009.9
20260902230403 93 231 6.0 10.0 0.00 0.00 0.00 62 1009.9
20260902230303 93 212 6.0 10.0 0.00 0.00 0.00 62 1009.9
20260902230203 93 206 5.0 10.0 0.00 0.00 0.00 62 1009.9
20260902230038 93 206 5.0 10.0 0.00 0.00 0.00 62 1009.9
20260902225938 93 206 5.0 10.0 0.00 0.00 0.00 62 1009.9
20260902225837 93 193 5.0 10.0 0.00 0.00 0.00 62 1009.9
20260902225737 93 202 6.0 10.0 0.00 0.00 0.00 62 1009.9
20260902225637 93 212 6.0 10.0 0.00 0.00 0.00 62 1010.0
20260902225537 94 206 6.0 10.0 0.00 0.00 0.00 61 1010.0
20260902225437 94 192 5.0 10.0 0.00 0.00 0.00 62 1010.0
20260902225336 94 214 5.0 10.0 0.00 0.00 0.00 62 1010.0
20260902225236 94 182 6.0 10.0 0.00 0.00 0.00 61 1010.0
20260902225138 94 207 6.0 10.0 0.00 0.00 0.00 61 1010.0
20260902225037 93 228 5.0 7.0 0.00 0.01 0.00 62 1010.0
20260902224937 93 168 3.0 7.0 0.00 0.01 0.00 61 1010.1
20260902224837 94 213 4.0 7.0 0.00 0.01 0.00 61 1010.0
20260902224737 94 213 4.0 7.0 0.00 0.01 0.00 61 1010.0
20260902224637 94 213 4.0 7.0 0.00 0.01 0.00 61 1010.0
20260902224537 93 157 4.0 7.0 0.00 0.01 0.00 61 1010.1
20260902224436 94 197 3.0 7.0 0.00 0.01 0.00 61 1010.1
20260902224338 94 166 2.0 3.0 0.00 0.01 0.00 61 1010.1
20260902224237 0 0.0 0.0 0.00 0.01 0.00 1010.1
20260902224137 0 0.0 0.0 0.00 0.01 0.00 1010.1
20260902224034 0 0.0 0.0 0.00 0.01 0.00 1010.1
20260902223934 0 0.0 0.0 0.00 0.01 0.00 1010.1
20260902223832 0 0.0 0.0 0.00 0.01 0.00 1010.1
20260902223732 0 0.0 0.0 0.00 0.01 0.00 1010.1
20260902223631 0 0.0 0.0 0.00 0.01 0.00 1010.1
20260902223532 0 0.0 0.0 0.00 0.01 0.00 1010.1
20260902223432 0 0.0 0.0 0.00 0.01 0.00 1010.1
20260902223332 0 0.0 0.0 0.00 0.01 0.00 1010.1
20260902223233 0 0.0 0.0 0.00 0.01 0.00 1010.1
20260902223132 0 0.0 0.0 0.00 0.01 0.00 1010.0
20260902223031 0 0.0 0.0 0.00 0.01 0.00 1010.1
20260902222932 0 169 5.0 5.0 0.00 0.01 0.00 1010.1
20260902222832 94 169 5.0 9.0 0.00 0.01 0.00 62 1010.1
20260902222732 94 169 5.0 9.0 0.00 0.01 0.00 62 1010.1
20260902222603 94 169 5.0 9.0 0.00 0.01 0.00 62 1010.1
20260902222505 94 169 5.0 9.0 0.00 0.01 0.00 62 1010.1
20260902222403 94 169 5.0 9.0 0.00 0.01 0.00 62 1010.1
20260902222305 94 169 5.0 9.0 0.00 0.01 0.00 62 1010.0
20260902222202 94 169 5.0 9.0 0.00 0.01 0.00 62 1010.1
20260902222103 94 169 5.0 9.0 0.00 0.01 0.00 62 1010.1
20260902222004 94 169 5.0 9.0 0.00 0.01 0.00 62 1010.1
20260902221902 94 197 6.0 9.0 0.00 0.01 0.00 62 1010.2
20260902221803 94 171 5.0 9.0 0.00 0.01 0.00 62 1010.2
20260902221704 94 179 5.0 9.0 0.00 0.01 0.00 62 1010.1
20260902221605 94 121 5.0 9.0 0.00 0.01 0.00 61 1010.2
20260902221502 94 154 6.0 9.0 0.00 0.01 0.00 61 1010.1
20260902221404 94 157 6.0 9.0 0.00 0.01 0.00 61 1010.2
20260902221303 94 165 5.0 9.0 0.00 0.01 0.00 61 1010.2
20260902221203 94 145 4.0 9.0 0.00 0.01 0.00 61 1010.2
20260902221102 94 171 2.0 12.0 0.00 0.01 0.00 61 1010.2
20260902221002 94 182 3.0 12.0 0.00 0.01 0.00 61 1010.1
20260902220903 94 151 4.0 12.0 0.00 0.01 0.00 61 1010.2
20260902220803 94 171 3.0 12.0 0.00 0.01 0.00 61 1010.1
20260902220703 95 171 4.0 12.0 0.00 0.01 0.00 60 1010.2
20260902220604 95 151 4.0 12.0 0.00 0.01 0.00 59 1010.1
20260902220505 95 144 4.0 12.0 0.00 0.01 0.00 60 1010.2
20260902220403 95 178 3.0 12.0 0.00 0.01 0.00 60 1010.1
20260902220304 95 221 4.0 12.0 0.00 0.01 0.00 60 1010.1
20260902220203 95 204 4.0 12.0 0.00 0.01 0.00 60 1010.2
20260902220004 94 155 3.0 9.0 0.00 0.02 0.00 60 1010.2
20260902215903 94 179 3.0 9.0 0.00 0.02 0.00 60 1010.2
20260902215801 94 161 3.0 11.0 0.00 0.02 0.00 60 1010.1
20260902215703 94 179 5.0 11.0 0.00 0.02 0.00 60 1010.2
20260902215603 94 120 4.0 11.0 0.00 0.02 0.00 60 1010.2
20260902215504 94 161 4.0 11.0 0.00 0.02 0.00 61 1010.2
20260902215403 94 230 6.0 11.0 0.00 0.02 0.00 60 1010.2
20260902215306 94 221 6.0 11.0 0.00 0.02 0.00 60 1010.2
20260902215203 94 220 5.0 11.0 0.00 0.02 0.00 61 1010.2
20260902215103 94 183 5.0 11.0 0.00 0.02 0.00 61 1010.2
20260902215003 94 192 6.0 11.0 0.00 0.02 0.00 61 1010.2
20260902214901 94 169 4.0 11.0 0.00 0.02 0.00 61 1010.2
20260902214802 94 127 3.0 9.0 0.00 0.02 0.00 61 1010.1
20260902214703 94 178 5.0 9.0 0.00 0.02 0.00 60 1010.1
20260902214602 95 151 4.0 9.0 0.00 0.02 0.00 61 1010.1
20260902214503 95 200 4.0 9.0 0.00 0.02 0.00 61 1010.1
20260902214404 95 168 4.0 7.0 0.00 0.02 0.00 61 1010.1
20260902214301 95 176 2.0 7.0 0.00 0.02 0.00 61 1010.1
20260902214204 95 189 3.0 7.0 0.00 0.02 0.00 61 1010.2
20260902214102 95 193 4.0 7.0 0.00 0.02 0.00 60 1010.2
20260902214004 95 179 4.0 7.0 0.00 0.02 0.00 60 1010.2
20260902213902 95 164 4.0 6.0 0.00 0.02 0.00 60 1010.3
20260902213803 95 196 3.0 5.0 0.00 0.02 0.00 60 1010.3
20260902213702 95 188 3.0 5.0 0.00 0.02 0.00 60 1010.3
20260902213604 95 145 3.0 5.0 0.00 0.02 0.00 60 1010.3
20260902213504 95 213 2.0 6.0 0.00 0.02 0.00 61 1010.3
20260902213403 95 213 1.0 6.0 0.00 0.02 0.00 62 1010.3
20260902213303 95 213 2.0 6.0 0.00 0.02 0.00 61 1010.3
20260902213203 95 213 2.0 6.0 0.00 0.02 0.00 61 1010.3
20260902213103 95 213 2.0 7.0 0.00 0.02 0.00 61 1010.3
20260902213005 95 213 2.0 9.0 0.00 0.02 0.00 61 1010.3
20260902212903 95 213 2.0 9.0 0.00 0.02 0.00 61 1010.3
20260902212804 95 213 4.0 9.0 0.00 0.02 0.00 60 1010.3
20260902212702 95 214 4.0 9.0 0.00 0.02 0.00 60 1010.3
20260902212602 95 228 3.0 9.0 0.00 0.02 0.00 60 1010.4
20260902212503 95 196 3.0 9.0 0.00 0.02 0.00 61 1010.3
20260902212403 95 195 4.0 9.0 0.00 0.02 0.00 60 1010.4
20260902212305 95 207 5.0 10.0 0.00 0.02 0.00 60 1010.3
20260902212203 95 223 5.0 12.0 0.00 0.02 0.00 60 1010.3
20260902212103 95 226 5.0 12.0 0.00 0.02 0.00 60 1010.3
20260902212001 95 216 5.0 12.0 0.00 0.02 0.00 60 1010.3
20260902211903 95 209 5.0 12.0 0.00 0.02 0.00 61 1010.4
20260902211802 95 151 3.0 12.0 0.00 0.02 0.00 61 1010.4
20260902211702 94 199 2.0 12.0 0.00 0.02 0.00 61 1010.4
20260902211603 94 207 2.0 12.0 0.00 0.02 0.00 60 1010.3
20260902211501 94 197 4.0 12.0 0.00 0.02 0.00 60 1010.4
20260902211404 94 200 6.0 12.0 0.00 0.02 0.00 60 1010.4
20260902211302 94 244 7.0 12.0 0.00 0.02 0.00 61 1010.4
20260902211203 94 265 7.0 11.0 0.00 0.02 0.00 61 1010.5
20260902211103 94 192 7.0 11.0 0.00 0.02 0.00 61 1010.4
20260902211003 94 178 7.0 11.0 0.00 0.02 0.00 61 1010.4
20260902210904 94 219 3.0 9.0 0.00 0.02 0.00 61 1010.5
20260902210803 94 219 3.0 9.0 0.00 0.02 0.00 61 1010.5
20260902210704 94 219 3.0 9.0 0.00 0.02 0.00 61 1010.5
20260902210604 94 219 3.0 12.0 0.00 0.02 0.00 61 1010.5
20260902210504 94 241 3.0 12.0 0.00 0.02 0.00 61 1010.6
20260902210404 94 206 5.0 12.0 0.00 0.02 0.00 61 1010.5
20260902210302 94 234 7.0 12.0 0.00 0.02 0.00 60 1010.5
20260902210202 94 231 3.0 12.0 0.00 0.02 0.00 61 1010.6
20260902210104 94 231 3.0 12.0 0.00 0.02 0.00 61 1010.6
20260902210003 94 231 3.0 12.0 0.00 0.02 0.00 61 1010.6
20260902205903 94 182 3.0 12.0 0.00 0.02 0.00 61 1010.5
20260902205802 95 168 5.0 12.0 0.00 0.02 0.00 60 1010.5
20260902205703 95 179 6.0 12.0 0.00 0.02 0.00 60 1010.5
20260902205602 95 207 4.0 10.0 0.00 0.02 0.00 61 1010.5
20260902205502 95 196 4.0 10.0 0.00 0.02 0.00 61 1010.5
20260902205403 95 210 6.0 10.0 0.00 0.02 0.00 61 1010.5
20260902205302 95 207 6.0 9.0 0.00 0.02 0.00 60 1010.6
20260902205204 95 213 8.0 9.0 0.00 0.02 0.00 60 1010.6
20260902205103 0 0.0 0.0 0.00 0.02 0.00 1010.6
20260902205003 0 0.0 0.0 0.00 0.02 0.00 1010.6
20260902204904 0 0.0 0.0 0.00 0.02 0.00 1010.7
20260902204803 0 0.0 0.0 0.00 0.02 0.00 1010.6
20260902204703 0 0.0 0.0 0.00 0.02 0.00 1010.6
20260902204603 0 0.0 0.0 0.00 0.02 0.00 1010.7
20260902204504 0 0.0 0.0 0.00 0.02 0.00 1010.7
20260902204404 0 0.0 0.0 0.00 0.02 0.00 1010.7
20260902204303 0 0.0 0.0 0.00 0.02 0.00 1010.6
20260902204204 0 0.0 0.0 0.00 0.02 0.00 1010.7
20260902204103 0 0.0 0.0 0.00 0.02 0.00 1010.8
20260902204003 0 0.0 0.0 0.00 0.02 0.00 1010.6
20260902203903 0 0.0 0.0 0.00 0.02 0.00 1010.7
20260902203803 95 169 3.0 4.0 0.00 0.02 0.00 60 1010.8
20260902203703 95 169 3.0 5.0 0.00 0.02 0.00 60 1010.8
20260902203603 95 169 3.0 5.0 0.00 0.02 0.00 60 1010.8
20260902203504 95 169 3.0 5.0 0.00 0.02 0.00 60 1010.8
20260902203403 95 169 3.0 6.0 0.00 0.02 0.00 60 1010.9
20260902203304 95 169 3.0 6.0 0.00 0.02 0.00 60 1010.8
20260902203203 95 169 3.0 9.0 0.00 0.02 0.00 60 1010.9
20260902203103 95 169 3.0 11.0 0.00 0.02 0.00 60 1010.9
20260902203004 95 169 3.0 12.0 0.00 0.02 0.00 60 1010.8
20260902202904 95 169 3.0 12.0 0.00 0.02 0.00 60 1010.9
20260902202804 95 154 2.0 12.0 0.00 0.02 0.00 60 1010.8
20260902202701 95 164 2.0 12.0 0.00 0.02 0.00 61 1010.8
20260902202604 95 221 2.0 12.0 0.00 0.02 0.00 61 1010.9
20260902202502 95 221 3.0 12.0 0.00 0.02 0.00 60 1011.0
20260902202402 95 193 5.0 12.0 0.00 0.02 0.00 60 1010.9
20260902202306 95 186 6.0 12.0 0.00 0.02 0.00 60 1010.9
20260902202204 95 192 7.0 12.0 0.00 0.02 0.00 61 1010.9
20260902202102 95 228 8.0 12.0 0.00 0.02 0.00 60 1010.9
20260902202003 96 217 8.0 12.0 0.00 0.02 0.00 60 1010.9
20260902201904 96 193 6.0 12.0 0.00 0.02 0.00 59 1011.0
20260902201804 96 158 5.0 9.0 0.00 0.02 0.00 59 1010.9
20260902201702 96 169 5.0 9.0 0.00 0.02 0.00 59 1011.0
20260902201605 96 173 5.0 9.0 0.00 0.02 0.00 59 1010.9
20260902201502 96 206 3.0 9.0 0.00 0.02 0.00 60 1010.9
20260902201403 96 193 2.0 7.0 0.00 0.02 0.00 60 1010.9
20260902201302 96 196 2.0 7.0 0.00 0.02 0.00 59 1011.0
20260902201202 96 230 3.0 7.0 0.00 0.02 0.00 59 1011.0
20260902201107 96 243 3.0 7.0 0.00 0.02 0.00 59 1010.9
20260902201003 96 241 4.0 7.0 0.00 0.02 0.00 60 1011.0
20260902200904 96 245 6.0 7.0 0.00 0.02 0.00 60 1011.0
20260902200803 0 0.0 0.0 0.00 0.02 0.00 1011.0
20260902200703 0 0.0 0.0 0.00 0.02 0.00 1011.0
20260902200603 0 0.0 0.0 0.00 0.02 0.00 1011.1
20260902200504 0 0.0 0.0 0.00 0.02 0.00 1011.1
20260902200403 0 0.0 0.0 0.00 0.02 0.00 1011.1
20260902200303 0 0.0 0.0 0.00 0.02 0.00 1011.1
20260902200203 95 250 5.0 5.0 0.00 0.02 0.00 60 1011.1
20260902200033 95 250 5.0 9.0 0.00 0.02 0.00 60 1011.2
20260902195932 95 250 5.0 9.0 0.00 0.02 0.00 60 1011.2
20260902195833 95 250 5.0 9.0 0.00 0.02 0.00 60 1011.1
20260902195732 95 250 5.0 9.0 0.00 0.02 0.00 60 1011.1
20260902195633 95 250 5.0 9.0 0.00 0.02 0.00 60 1011.1
20260902195533 95 250 5.0 9.0 0.00 0.02 0.00 60 1011.2
20260902195432 95 250 5.0 9.0 0.00 0.02 0.00 60 1011.2
20260902195331 95 250 5.0 9.0 0.00 0.02 0.00 60 1011.2
20260902195219 95 254 5.0 9.0 0.00 0.02 0.00 60 1011.3
20260902195116 95 207 5.0 9.0 0.00 0.02 0.00 60 1011.3
20260902195016 95 186 4.0 11.0 0.00 0.02 0.00 60 1011.3
20260902194914 95 158 4.0 11.0 0.00 0.02 0.00 60 1011.3
20260902194815 95 138 2.0 12.0 0.00 0.02 0.00 60 1011.3
20260902194716 95 178 0.0 13.0 0.00 0.02 0.00 61 1011.4
20260902194616 95 282 6.0 13.0 0.00 0.02 0.00 59 1011.4
20260902194515 95 282 6.0 13.0 0.00 0.02 0.00 59 1011.4
20260902194415 95 282 6.0 13.0 0.00 0.02 0.00 59 1011.5
20260902194314 95 288 6.0 13.0 0.00 0.02 0.00 59 1011.5
20260902194215 95 271 7.0 13.0 0.00 0.02 0.00 59 1011.5
20260902194115 95 264 7.0 13.0 0.00 0.02 0.00 59 1011.5
20260902194015 95 243 6.0 13.0 0.00 0.02 0.00 59 1011.5
20260902193916 95 248 7.0 13.0 0.00 0.02 0.00 59 1011.5
20260902193814 95 303 7.0 13.0 0.00 0.02 0.00 59 1011.6
20260902193714 95 269 7.0 13.0 0.00 0.02 0.00 59 1011.6
20260902193616 95 279 8.0 13.0 0.00 0.02 0.00 59 1011.5
20260902193514 95 224 6.0 10.0 0.00 0.02 0.00 59 1011.6
20260902193416 95 278 5.0 10.0 0.00 0.02 0.00 59 1011.6
20260902193316 95 261 6.0 10.0 0.00 0.02 0.00 59 1011.6
20260902193216 95 230 6.0 10.0 0.00 0.02 0.00 59 1011.6
20260902193113 95 275 6.0 10.0 0.00 0.02 0.00 60 1011.6
20260902193014 95 262 6.0 10.0 0.00 0.02 0.00 60 1011.7
20260902192914 95 272 6.0 10.0 0.00 0.02 0.00 60 1011.6
20260902192813 95 278 6.0 12.0 0.00 0.02 0.00 59 1011.7
20260902192711 95 274 6.0 12.0 0.00 0.02 0.00 61 1011.7
20260902192609 95 302 5.0 13.0 0.00 0.02 0.00 60 1011.7
20260902192508 95 247 5.0 13.0 0.00 0.02 0.00 60 1011.7
20260902192408 95 228 4.0 13.0 0.00 0.02 0.00 60 1011.7
20260902192307 94 234 4.0 13.0 0.00 0.02 0.00 60 1011.7
20260902192205 94 272 6.0 13.0 0.00 0.02 0.00 60 1011.7
20260902192104 94 266 6.0 13.0 0.00 0.02 0.00 60 1011.7
20260902192003 94 278 6.0 13.0 0.00 0.02 0.00 60 1011.7
20260902191903 94 278 5.0 13.0 0.00 0.02 0.00 61 1011.7
20260902191803 94 237 7.0 13.0 0.00 0.02 0.00 61 1011.7
20260902191702 94 240 7.0 13.0 0.00 0.02 0.00 61 1011.8
20260902191603 94 276 6.0 11.0 0.00 0.02 0.00 62 1011.8
20260902191502 94 288 6.0 11.0 0.00 0.02 0.00 61 1011.8
20260902191402 94 259 6.0 11.0 0.00 0.02 0.00 61 1011.9
20260902191303 94 337 6.0 11.0 0.00 0.02 0.00 61 1011.8
20260902191203 94 285 6.0 11.0 0.00 0.02 0.00 61 1011.9
20260902191103 94 220 6.0 11.0 0.00 0.02 0.00 61 1011.9
20260902191002 94 199 7.0 11.0 0.00 0.02 0.00 61 1011.9
20260902190902 94 259 6.0 10.0 0.00 0.02 0.00 61 1011.9
20260902190803 94 262 4.0 10.0 0.00 0.02 0.00 62 1011.8
20260902190703 94 221 4.0 12.0 0.00 0.02 0.00 62 1011.8
20260902190603 94 264 5.0 12.0 0.00 0.02 0.00 62 1011.8
20260902190502 94 327 5.0 12.0 0.00 0.02 0.00 63 1011.8
20260902190403 94 243 5.0 12.0 0.00 0.02 0.00 63 1011.8
20260902190303 94 243 5.0 12.0 0.00 0.02 0.00 63 1011.8
20260902190203 94 243 5.0 12.0 0.00 0.02 0.00 63 1011.7
20260902190004 93 271 6.0 12.0 0.00 0.02 0.00 63 1011.8
20260902185902 93 247 7.0 12.0 0.00 0.02 0.00 63 1011.8
20260902185805 93 266 7.0 12.0 0.00 0.02 0.00 63 1011.8
20260902185704 93 216 6.0 14.0 0.00 0.02 0.00 63 1011.8
20260902185605 93 238 4.0 14.0 0.00 0.02 0.00 64 1011.9
20260902185503 93 220 4.0 14.0 0.00 0.02 0.00 64 1011.9
20260902185403 93 234 7.0 14.0 0.00 0.02 0.00 64 1011.9
20260902185306 93 234 7.0 14.0 0.00 0.02 0.00 64 1011.9
20260902185204 93 234 7.0 14.0 0.00 0.02 0.00 64 1012.0
20260902185103 93 234 7.0 14.0 0.00 0.02 0.00 64 1011.9
20260902184937 93 259 8.0 14.0 0.00 0.02 0.00 64 1012.0
20260902184834 93 278 9.0 14.0 0.00 0.02 0.00 64 1012.0
20260902184732 93 265 8.0 14.0 0.00 0.02 0.00 64 1012.1
20260902184632 93 254 7.0 14.0 0.00 0.02 0.00 64 1012.0
20260902184533 93 257 8.0 14.0 0.00 0.02 0.00 63 1012.1
20260902184432 93 257 9.0 14.0 0.00 0.02 0.00 64 1012.0
20260902184332 93 257 8.0 14.0 0.00 0.02 0.00 64 1012.1
20260902184233 93 214 5.0 12.0 0.00 0.02 0.00 64 1012.1
20260902184131 93 257 5.0 10.0 0.00 0.02 0.00 64 1012.1
20260902184032 93 266 6.0 10.0 0.00 0.02 0.00 64 1012.2
20260902183933 93 266 6.0 10.0 0.00 0.02 0.00 64 1012.2
20260902183832 93 266 6.0 10.0 0.00 0.02 0.00 64 1012.2
20260902183732 93 266 6.0 10.0 0.00 0.02 0.00 64 1012.3
20260902183634 93 296 6.0 10.0 0.00 0.02 0.00 64 1012.3
20260902183533 93 283 5.0 9.0 0.00 0.02 0.00 64 1012.3
20260902183422 93 288 5.0 9.0 0.00 0.02 0.00 64 1012.3
20260902183320 93 204 3.0 10.0 0.00 0.02 0.00 63 1012.3
20260902183217 93 209 3.0 10.0 0.00 0.02 0.00 64 1012.3
20260902183116 93 230 4.0 10.0 0.00 0.02 0.00 64 1012.4
20260902183015 93 269 5.0 10.0 0.00 0.02 0.00 64 1012.4
20260902182915 93 226 4.0 10.0 0.00 0.02 0.00 64 1012.5
20260902182812 93 266 3.0 10.0 0.00 0.02 0.00 64 1012.4
20260902182712 93 286 4.0 10.0 0.00 0.02 0.00 64 1012.4
20260902182612 94 295 4.0 10.0 0.00 0.02 0.00 65 1012.4
20260902182512 93 276 5.0 12.0 0.00 0.02 0.00 65 1012.6
20260902182415 93 303 3.0 12.0 0.00 0.02 0.00 65 1012.5
20260902182313 93 223 0.0 12.0 0.00 0.02 0.00 65 1012.5
20260902182214 93 223 2.0 14.0 0.00 0.02 0.00 65 1012.5
20260902182112 93 223 3.0 14.0 0.00 0.02 0.00 66 1012.5
20260902182015 93 310 5.0 14.0 0.00 0.02 0.00 66 1012.6
20260902181913 92 233 6.0 14.0 0.00 0.02 0.00 65 1012.6
20260902181813 92 276 4.0 14.0 0.00 0.02 0.00 65 1012.6
20260902181712 93 286 5.0 14.0 0.00 0.02 0.00 64 1012.7
20260902181613 93 269 6.0 14.0 0.00 0.02 0.00 65 1012.7
20260902181515 93 250 7.0 14.0 0.00 0.02 0.00 65 1012.7
20260902181412 93 258 7.0 14.0 0.00 0.02 0.00 65 1012.8
20260902181313 93 259 7.0 15.0 0.00 0.02 0.00 65 1012.8
20260902181212 92 274 6.0 15.0 0.00 0.02 0.00 66 1012.8
20260902181114 92 293 7.0 15.0 0.00 0.02 0.00 66 1012.8
20260902181013 92 305 7.0 15.0 0.00 0.02 0.00 66 1012.9
20260902180914 92 269 8.0 15.0 0.00 0.02 0.00 67 1012.8
20260902180813 92 275 8.0 15.0 0.00 0.02 0.00 67 1012.9
20260902180718 92 275 8.0 15.0 0.00 0.02 0.00 67 1012.9
20260902180614 92 275 9.0 15.0 0.00 0.02 0.00 66 1012.9
20260902180513 92 238 9.0 15.0 0.00 0.02 0.00 66 1012.8
20260902180413 92 282 8.0 15.0 0.00 0.02 0.00 66 1012.9
20260902180312 92 275 6.0 13.0 0.00 0.02 0.00 66 1012.9
20260902180212 92 248 7.0 13.0 0.00 0.02 0.00 67 1012.9
20260902180113 92 271 7.0 13.0 0.00 0.02 0.00 67 1013.0
20260902180012 92 261 6.0 13.0 0.00 0.02 0.00 68 1013.0
20260902175913 92 268 7.0 13.0 0.00 0.02 0.00 68 1013.0
20260902175813 92 278 8.0 13.0 0.00 0.02 0.00 69 1013.0
20260902175713 91 259 6.0 13.0 0.00 0.02 0.00 69 1013.0
20260902175612 91 306 7.0 12.0 0.00 0.02 0.00 69 1013.1
20260902175512 91 298 8.0 12.0 0.00 0.02 0.00 68 1013.1
20260902175413 91 303 6.0 11.0 0.00 0.02 0.00 68 1013.0
20260902175312 91 254 6.0 11.0 0.00 0.02 0.00 69 1013.1
20260902175213 91 269 8.0 11.0 0.00 0.02 0.00 69 1013.2
20260902175112 91 257 8.0 11.0 0.00 0.02 0.00 70 1013.1
20260902175013 90 275 5.0 11.0 0.00 0.02 0.00 70 1013.1
20260902174913 90 275 5.0 11.0 0.00 0.02 0.00 70 1013.2
20260902174812 90 275 5.0 11.0 0.00 0.02 0.00 70 1013.2
20260902174711 90 275 5.0 11.0 0.00 0.02 0.00 70 1013.3
20260902174612 90 254 5.0 11.0 0.00 0.02 0.00 71 1013.2
20260902174513 90 269 7.0 11.0 0.00 0.02 0.00 71 1013.2
20260902174412 90 285 8.0 11.0 0.00 0.02 0.00 71 1013.3
20260902174312 90 285 7.0 10.0 0.00 0.02 0.00 71 1013.3
20260902174212 90 286 7.0 10.0 0.00 0.02 0.00 70 1013.3
20260902174111 90 259 6.0 11.0 0.00 0.02 0.00 71 1013.4
20260902174012 90 281 4.0 11.0 0.00 0.02 0.00 71 1013.4
20260902173911 90 248 4.0 11.0 0.00 0.02 0.00 71 1013.3
20260902173813 90 276 5.0 11.0 0.00 0.02 0.00 71 1013.4
20260902173711 90 288 5.0 11.0 0.00 0.02 0.00 71 1013.4
20260902173611 90 299 6.0 11.0 0.00 0.02 0.00 71 1013.4
20260902173513 90 285 6.0 11.0 0.00 0.02 0.00 71 1013.5
20260902173415 90 324 7.0 11.0 0.00 0.02 0.00 71 1013.5
20260902173311 90 264 7.0 11.0 0.00 0.02 0.00 71 1013.5
20260902173211 90 286 7.0 11.0 0.00 0.02 0.00 72 1013.5
20260902173112 90 261 6.0 9.0 0.00 0.02 0.00 71 1013.5
20260902173013 90 261 6.0 9.0 0.00 0.02 0.00 71 1013.5
20260902172912 90 261 6.0 11.0 0.00 0.02 0.00 71 1013.6
20260902172813 90 261 6.0 11.0 0.00 0.02 0.00 71 1013.6
20260902172711 90 252 6.0 11.0 0.00 0.02 0.00 72 1013.6
20260902172612 90 276 6.0 11.0 0.00 0.02 0.00 72 1013.6
20260902172512 90 257 5.0 11.0 0.00 0.02 0.00 72 1013.6
20260902172411 90 268 5.0 11.0 0.00 0.02 0.00 72 1013.7
20260902172311 89 293 5.0 11.0 0.00 0.02 0.00 73 1013.7
20260902172211 89 261 5.0 11.0 0.00 0.02 0.00 73 1013.7
20260902172112 89 252 6.0 11.0 0.00 0.02 0.00 73 1013.6
20260902172010 89 295 7.0 11.0 0.00 0.02 0.00 72 1013.7
20260902171910 89 276 8.0 11.0 0.00 0.02 0.00 72 1013.7
20260902171813 89 281 7.0 11.0 0.00 0.02 0.00 72 1013.7
20260902171712 89 268 6.0 10.0 0.00 0.02 0.00 72 1013.7
20260902171612 89 264 5.0 10.0 0.00 0.02 0.00 72 1013.8
20260902171512 90 281 4.0 14.0 0.00 0.02 0.00 73 1013.7
20260902171411 89 269 2.0 14.0 0.00 0.02 0.00 74 1013.7
20260902171312 89 250 2.0 14.0 0.00 0.02 0.00 74 1013.7
20260902171208 89 255 2.0 14.0 0.00 0.02 0.00 73 1013.8
20260902171103 89 271 6.0 14.0 0.00 0.02 0.00 73 1013.8
20260902171004 89 271 6.0 14.0 0.00 0.02 0.00 73 1013.8
20260902170904 89 271 6.0 14.0 0.00 0.02 0.00 73 1013.8
20260902170803 89 261 7.0 14.0 0.00 0.02 0.00 73 1013.9
20260902170703 89 296 7.0 14.0 0.00 0.02 0.00 73 1014.0
20260902170602 89 313 6.0 14.0 0.00 0.02 0.00 74 1013.9
20260902170505 89 292 7.0 11.0 0.00 0.02 0.00 74 1013.9
20260902170402 89 285 7.0 11.0 0.00 0.02 0.00 73 1013.9
20260902170302 89 271 8.0 11.0 0.00 0.02 0.00 73 1013.9
20260902170203 89 247 9.0 11.0 0.00 0.02 0.00 73 1014.0
20260902170035 89 317 7.0 14.0 0.00 0.02 0.00 73 1014.0
20260902165933 89 317 7.0 14.0 0.00 0.02 0.00 73 1014.0
20260902165831 89 272 6.0 14.0 0.00 0.02 0.00 73 1014.0
20260902165733 89 248 5.0 14.0 0.00 0.02 0.00 73 1014.0
20260902165632 89 214 5.0 14.0 0.00 0.02 0.00 73 1014.0
20260902165531 89 262 6.0 14.0 0.00 0.02 0.00 73 1014.0
20260902165434 89 240 7.0 14.0 0.00 0.02 0.00 73 1014.0
20260902165331 89 237 7.0 14.0 0.00 0.02 0.00 73 1014.0
20260902165231 89 275 8.0 14.0 0.00 0.02 0.00 73 1014.0
20260902165131 89 300 9.0 14.0 0.00 0.02 0.00 74 1014.0
20260902165033 89 265 6.0 14.0 0.00 0.02 0.00 74 1014.0
20260902164931 89 214 6.0 14.0 0.00 0.02 0.00 75 1014.0
20260902164833 89 299 7.0 14.0 0.00 0.02 0.00 74 1014.0
20260902164732 89 274 8.0 14.0 0.00 0.02 0.00 74 1014.0
20260902164632 89 230 7.0 14.0 0.00 0.02 0.00 74 1014.0
20260902164532 89 258 7.0 14.0 0.00 0.02 0.00 74 1014.0
20260902164431 89 305 8.0 14.0 0.00 0.02 0.00 74 1014.0
20260902164331 89 274 9.0 14.0 0.00 0.02 0.00 75 1014.0
20260902164232 89 244 9.0 14.0 0.00 0.02 0.00 75 1014.1
20260902164133 89 227 8.0 13.0 0.00 0.02 0.00 76 1014.1
20260902164032 89 278 6.0 13.0 0.00 0.02 0.00 76 1014.1
20260902163931 89 257 5.0 13.0 0.00 0.02 0.00 76 1014.1
20260902163832 88 230 9.0 13.0 0.00 0.02 0.00 76 1014.0
20260902163732 88 230 9.0 13.0 0.00 0.02 0.00 76 1014.1
20260902163633 88 230 9.0 13.0 0.00 0.02 0.00 76 1014.1
20260902163532 88 230 9.0 13.0 0.00 0.02 0.00 76 1014.1
20260902163431 88 241 9.0 13.0 0.00 0.02 0.00 77 1014.2
20260902163333 88 265 6.0 13.0 0.00 0.02 0.00 77 1014.2
20260902163232 88 261 5.0 13.0 0.00 0.02 0.00 77 1014.1
20260902163132 88 276 8.0 13.0 0.00 0.02 0.00 77 1014.2
20260902163031 88 264 9.0 13.0 0.00 0.02 0.00 77 1014.1
20260902162927 88 234 8.0 13.0 0.00 0.02 0.00 77 1014.2
20260902162829 88 261 9.0 13.0 0.00 0.02 0.00 77 1014.1
20260902162725 88 286 8.0 13.0 0.00 0.02 0.00 77 1014.2
20260902162623 88 248 8.0 13.0 0.00 0.02 0.00 77 1014.1
20260902162519 88 268 7.0 12.0 0.00 0.02 0.00 77 1014.1
20260902162418 88 286 7.0 12.0 0.00 0.02 0.00 78 1014.2
20260902162313 87 321 7.0 12.0 0.00 0.02 0.00 78 1014.2
20260902162213 87 227 7.0 12.0 0.00 0.02 0.00 79 1014.1
20260902162110 87 298 7.0 12.0 0.00 0.02 0.00 79 1014.2
20260902162009 87 285 7.0 12.0 0.00 0.02 0.00 79 1014.2
20260902161910 87 265 7.0 12.0 0.00 0.02 0.00 79 1014.2
20260902161809 87 295 8.0 12.0 0.00 0.02 0.00 79 1014.2
20260902161712 87 259 8.0 13.0 0.00 0.02 0.00 79 1014.2
20260902161610 87 295 8.0 13.0 0.00 0.02 0.00 80 1014.2
20260902161511 87 319 8.0 15.0 0.00 0.02 0.00 80 1014.3
20260902161410 87 265 7.0 15.0 0.00 0.02 0.00 80 1014.2
20260902161311 86 261 8.0 16.0 0.00 0.02 0.00 80 1014.2
20260902161211 86 306 7.0 16.0 0.00 0.02 0.00 80 1014.3
20260902161109 86 265 7.0 16.0 0.00 0.02 0.00 80 1014.2
20260902161010 86 275 8.0 16.0 0.00 0.02 0.00 80 1014.2
20260902160911 86 245 8.0 16.0 0.00 0.02 0.00 80 1014.2
20260902160811 86 250 9.0 16.0 0.00 0.02 0.00 80 1014.2
20260902160711 86 290 10.0 16.0 0.00 0.02 0.00 80 1014.2
20260902160610 86 264 11.0 16.0 0.00 0.02 0.00 80 1014.3
20260902160509 86 248 9.0 16.0 0.00 0.02 0.00 80 1014.2
20260902160409 86 286 7.0 16.0 0.00 0.02 0.00 81 1014.3
20260902160310 86 243 6.0 13.0 0.00 0.02 0.00 81 1014.3
20260902160209 86 244 7.0 13.0 0.00 0.02 0.00 81 1014.2
20260902160110 86 266 9.0 13.0 0.00 0.02 0.00 81 1014.2
20260902160011 86 266 9.0 13.0 0.00 0.02 0.00 81 1014.3
20260902155910 86 266 9.0 13.0 0.00 0.02 0.00 81 1014.3
20260902155809 86 266 8.0 13.0 0.00 0.02 0.00 81 1014.2
20260902155710 86 224 6.0 13.0 0.00 0.02 0.00 81 1014.3
20260902155608 86 285 5.0 12.0 0.00 0.02 0.00 81 1014.2
20260902155509 86 281 7.0 12.0 0.00 0.02 0.00 81 1014.2
20260902155410 86 238 8.0 12.0 0.00 0.02 0.00 81 1014.3
20260902155310 85 0 7.0 12.0 0.00 0.02 0.00 82 1014.3
20260902155210 85 0 7.0 13.0 0.00 0.02 0.00 82 1014.2
20260902155110 85 0 7.0 13.0 0.00 0.02 0.00 82 1014.2
20260902155010 85 0 7.0 13.0 0.00 0.02 0.00 82 1014.1
20260902154909 85 274 7.0 13.0 0.00 0.02 0.00 82 1014.2
20260902154810 85 279 8.0 13.0 0.00 0.02 0.00 83 1014.1
20260902154710 85 274 8.0 13.0 0.00 0.02 0.00 83 1014.2
20260902154608 85 272 7.0 13.0 0.00 0.02 0.00 83 1014.2
20260902154509 85 282 8.0 13.0 0.00 0.02 0.00 83 1014.2
20260902154411 85 274 9.0 13.0 0.00 0.02 0.00 83 1014.2
20260902154309 85 317 9.0 13.0 0.00 0.02 0.00 83 1014.2
20260902154209 85 259 7.0 13.0 0.00 0.02 0.00 83 1014.1
20260902154110 85 334 6.0 13.0 0.00 0.02 0.00 83 1014.2
20260902154010 85 298 9.0 13.0 0.00 0.02 0.00 83 1014.2
20260902153909 85 298 9.0 13.0 0.00 0.02 0.00 83 1014.1
20260902153810 85 298 9.0 13.0 0.00 0.02 0.00 83 1014.2
20260902153710 85 298 9.0 13.0 0.00 0.02 0.00 83 1014.1
20260902153613 85 288 8.0 13.0 0.00 0.02 0.00 83 1014.2
20260902153508 85 319 8.0 12.0 0.00 0.02 0.00 83 1014.1
20260902153409 85 262 9.0 12.0 0.00 0.02 0.00 83 1014.1
20260902153310 85 276 7.0 12.0 0.00 0.02 0.00 84 1014.2
20260902153210 85 276 7.0 12.0 0.00 0.02 0.00 84 1014.0
20260902153109 85 276 7.0 12.0 0.00 0.02 0.00 84 1014.1
20260902153010 85 264 7.0 12.0 0.00 0.02 0.00 84 1014.1
20260902152909 85 283 8.0 12.0 0.00 0.02 0.00 84 1014.1
20260902152808 85 257 8.0 12.0 0.00 0.02 0.00 84 1014.1
20260902152710 85 283 8.0 12.0 0.00 0.02 0.00 84 1014.1
20260902152608 85 245 8.0 12.0 0.00 0.02 0.00 84 1014.0
20260902152511 85 292 9.0 12.0 0.00 0.02 0.00 84 1014.1
20260902152409 85 279 4.0 12.0 0.00 0.02 0.00 84 1014.1
20260902152311 85 279 4.0 12.0 0.00 0.02 0.00 84 1014.0
20260902152209 85 279 4.0 12.0 0.00 0.02 0.00 84 1014.0
20260902152110 85 257 5.0 12.0 0.00 0.02 0.00 84 1013.9
20260902152009 85 282 6.0 12.0 0.00 0.02 0.00 84 1013.9
20260902151908 85 276 8.0 13.0 0.00 0.02 0.00 84 1014.0
20260902151810 85 285 7.0 13.0 0.00 0.02 0.00 84 1014.0
20260902151710 85 259 4.0 13.0 0.00 0.02 0.00 85 1013.9
20260902151610 84 251 6.0 13.0 0.00 0.02 0.00 85 1013.9
20260902151509 84 251 6.0 13.0 0.00 0.02 0.00 85 1013.9
20260902151411 84 251 6.0 13.0 0.00 0.02 0.00 85 1013.9
20260902151310 84 250 7.0 13.0 0.00 0.02 0.00 85 1014.0
20260902151209 84 257 8.0 13.0 0.00 0.02 0.00 85 1013.9
20260902151108 84 266 8.0 13.0 0.00 0.02 0.00 85 1013.9
20260902151008 84 212 7.0 13.0 0.00 0.02 0.00 85 1014.0
20260902150910 84 299 7.0 13.0 0.00 0.02 0.00 85 1013.9
20260902150809 84 279 8.0 13.0 0.00 0.02 0.00 85 1014.0
20260902150709 84 283 9.0 13.0 0.00 0.02 0.00 85 1013.9
20260902150608 84 286 7.0 11.0 0.00 0.02 0.00 85 1014.0
20260902150508 84 310 5.0 12.0 0.00 0.02 0.00 86 1013.9
20260902150409 84 327 4.0 13.0 0.00 0.02 0.00 86 1013.9
20260902150309 84 0 5.0 13.0 0.00 0.02 0.00 86 1013.9
20260902150210 84 0 5.0 13.0 0.00 0.02 0.00 86 1014.0
20260902150109 84 0 5.0 14.0 0.00 0.02 0.00 86 1014.0
20260902150009 84 0 5.0 14.0 0.00 0.02 0.00 86 1013.9
20260902145910 84 0 5.0 14.0 0.00 0.02 0.00 86 1014.0
20260902145807 84 0 5.0 14.0 0.00 0.02 0.00 86 1014.0
20260902145707 84 0 6.0 14.0 0.00 0.02 0.00 86 1013.9
20260902145608 84 0 9.0 14.0 0.00 0.02 0.00 86 1013.9
20260902145509 84 0 10.0 14.0 0.00 0.02 0.00 86 1013.9
20260902145408 84 0 7.0 14.0 0.00 0.02 0.00 86 1013.9
20260902145308 84 0 7.0 14.0 0.00 0.02 0.00 86 1013.9
20260902145208 84 0 8.0 14.0 0.00 0.02 0.00 86 1013.9
20260902145108 84 0 7.0 11.0 0.00 0.02 0.00 86 1013.9
20260902145009 84 0 7.0 11.0 0.00 0.02 0.00 86 1014.0
20260902144909 84 0 7.0 11.0 0.00 0.02 0.00 86 1013.8
20260902144808 84 0 8.0 11.0 0.00 0.02 0.00 86 1013.9
20260902144709 84 0 5.0 11.0 0.00 0.02 0.00 86 1013.9
20260902144607 84 0 4.0 10.0 0.00 0.02 0.00 86 1013.9
20260902144508 83 0 4.0 10.0 0.00 0.02 0.00 86 1013.9
20260902144407 83 0 5.0 10.0 0.00 0.02 0.00 86 1013.9
20260902144308 83 0 5.0 10.0 0.00 0.02 0.00 86 1013.9
20260902144207 83 0 5.0 10.0 0.00 0.02 0.00 86 1013.8
20260902144109 83 0 5.0 10.0 0.00 0.02 0.00 86 1013.8
20260902144008 83 0 5.0 10.0 0.00 0.02 0.00 86 1013.8
20260902143908 83 0 6.0 10.0 0.00 0.02 0.00 86 1013.8
20260902143807 83 0 5.0 11.0 0.00 0.02 0.00 87 1013.9
20260902143707 83 0 5.0 11.0 0.00 0.02 0.00 87 1013.9
20260902143607 83 0 5.0 11.0 0.00 0.02 0.00 87 1013.8
20260902143508 83 0 4.0 11.0 0.00 0.02 0.00 87 1013.8
20260902143408 83 0 7.0 11.0 0.00 0.02 0.00 87 1013.8
20260902143309 83 0 7.0 11.0 0.00 0.02 0.00 87 1013.8
20260902143208 83 0 7.0 11.0 0.00 0.02 0.00 87 1013.7
20260902143109 83 0 6.0 13.0 0.00 0.02 0.00 87 1013.8
20260902143008 83 0 6.0 13.0 0.00 0.02 0.00 87 1013.8
20260902142908 83 0 6.0 13.0 0.00 0.02 0.00 87 1013.7
20260902142808 83 0 5.0 13.0 0.00 0.02 0.00 87 1013.7
20260902142707 83 0 7.0 13.0 0.00 0.02 0.00 87 1013.8
20260902142608 83 0 8.0 13.0 0.00 0.02 0.00 87 1013.8
20260902142507 83 0 7.0 13.0 0.00 0.02 0.00 87 1013.8
20260902142408 83 0 5.0 13.0 0.00 0.02 0.00 87 1013.8
20260902142307 83 0 6.0 13.0 0.00 0.02 0.00 87 1013.8
20260902142208 83 0 8.0 13.0 0.00 0.02 0.00 87 1013.9
20260902142109 83 0 7.0 10.0 0.00 0.02 0.00 87 1013.9
20260902142007 83 0 7.0 9.0 0.00 0.02 0.00 87 1013.9
20260902141909 0 0.0 0.0 0.00 0.02 0.00 1013.9
20260902141810 0 0.0 0.0 0.00 0.02 0.00 1013.9
20260902141708 0 0.0 0.0 0.00 0.02 0.00 1013.8
20260902141605 0 0.0 0.0 0.00 0.02 0.00 1013.8
20260902141505 0 0.0 0.0 0.00 0.02 0.00 1013.8
20260902141405 83 0 6.0 7.0 0.00 0.02 0.00 87 1013.8
20260902141305 83 0 6.0 12.0 0.00 0.02 0.00 87 1013.9
20260902141204 83 0 6.0 12.0 0.00 0.02 0.00 87 1013.8
20260902141104 83 0 6.0 12.0 0.00 0.02 0.00 87 1013.8
20260902141003 83 0 6.0 12.0 0.00 0.02 0.00 87 1013.9
20260902140904 83 0 6.0 12.0 0.00 0.02 0.00 87 1013.9
20260902140803 83 0 6.0 12.0 0.00 0.02 0.00 87 1013.9
20260902140703 83 0 6.0 12.0 0.00 0.02 0.00 87 1013.9
20260902140603 83 0 6.0 12.0 0.00 0.02 0.00 87 1013.8
20260902140504 83 0 6.0 12.0 0.00 0.02 0.00 87 1013.9
20260902140404 83 0 7.0 12.0 0.00 0.02 0.00 87 1013.8
20260902140303 83 0 6.0 11.0 0.00 0.02 0.00 87 1013.8
20260902140202 83 0 5.0 11.0 0.00 0.02 0.00 87 1013.7
20260902140103 83 0 6.0 11.0 0.00 0.02 0.00 87 1013.8
20260902140004 83 0 7.0 11.0 0.00 0.02 0.00 87 1013.8
20260902135904 83 0 7.0 11.0 0.00 0.02 0.00 87 1013.8
20260902135804 83 0 9.0 11.0 0.00 0.02 0.00 88 1013.7
20260902135703 83 0 4.0 7.0 0.00 0.02 0.00 88 1013.7
20260902135604 83 0 4.0 7.0 0.00 0.02 0.00 88 1013.7
20260902135503 83 0 4.0 7.0 0.00 0.02 0.00 88 1013.7
20260902135403 83 0 4.0 11.0 0.00 0.02 0.00 88 1013.7
20260902135306 83 0 4.0 11.0 0.00 0.02 0.00 88 1013.7
20260902135203 83 0 4.0 11.0 0.00 0.02 0.00 88 1013.6
20260902135103 83 0 5.0 11.0 0.00 0.02 0.00 88 1013.6
20260902135004 83 0 6.0 11.0 0.00 0.02 0.00 88 1013.7
20260902134903 83 0 6.0 11.0 0.00 0.02 0.00 88 1013.7
20260902134804 83 0 6.0 11.0 0.00 0.02 0.00 88 1013.7
20260902134703 83 0 6.0 11.0 0.00 0.02 0.00 88 1013.7
20260902134604 83 0 6.0 11.0 0.00 0.02 0.00 88 1013.7
20260902134435 83 0 5.0 11.0 0.00 0.02 0.00 88 1013.6
20260902134332 83 0 6.0 11.0 0.00 0.02 0.00 88 1013.7
20260902134219 83 0 6.0 11.0 0.00 0.02 0.00 88 1013.7
20260902134118 83 0 6.0 11.0 0.00 0.02 0.00 88 1013.7
20260902134007 83 0 6.0 11.0 0.00 0.02 0.00 88 1013.7
20260902133906 83 0 7.0 11.0 0.00 0.02 0.00 88 1013.7
20260902133804 83 0 6.0 11.0 0.00 0.02 0.00 88 1013.7
20260902133704 83 0 5.0 9.0 0.00 0.02 0.00 88 1013.7
20260902133603 83 0 4.0 9.0 0.00 0.02 0.00 88 1013.7
20260902133504 83 0 5.0 9.0 0.00 0.02 0.00 88 1013.7
20260902133405 83 0 4.0 9.0 0.00 0.02 0.00 88 1013.7
20260902133304 83 0 4.0 9.0 0.00 0.02 0.00 88 1013.6
20260902133202 83 0 4.0 9.0 0.00 0.02 0.00 88 1013.6
20260902133102 82 0 5.0 9.0 0.00 0.02 0.00 88 1013.6
20260902133003 82 0 6.0 9.0 0.00 0.02 0.00 88 1013.6
20260902132902 82 0 6.0 9.0 0.00 0.02 0.00 88 1013.6
20260902132802 82 0 5.0 7.0 0.00 0.02 0.00 88 1013.6
20260902132702 82 0 4.0 7.0 0.00 0.02 0.00 88 1013.6
20260902132604 82 0 5.0 7.0 0.00 0.02 0.00 88 1013.6
20260902132504 82 0 5.0 7.0 0.00 0.02 0.00 88 1013.6
20260902132403 82 0 5.0 10.0 0.00 0.02 0.00 88 1013.7
20260902132306 82 0 5.0 10.0 0.00 0.02 0.00 88 1013.6
20260902132203 82 0 5.0 10.0 0.00 0.02 0.00 88 1013.7
20260902132102 82 0 5.0 10.0 0.00 0.02 0.00 88 1013.6
20260902132004 82 0 5.0 10.0 0.00 0.02 0.00 88 1013.7
20260902131904 82 0 5.0 10.0 0.00 0.02 0.00 88 1013.7
20260902131803 82 0 5.0 10.0 0.00 0.02 0.00 88 1013.6
20260902131703 82 0 5.0 10.0 0.00 0.02 0.00 88 1013.6
20260902131601 82 0 6.0 10.0 0.00 0.02 0.00 88 1013.6
20260902131502 82 0 6.0 10.0 0.00 0.02 0.00 88 1013.6
20260902131402 82 0 5.0 9.0 0.00 0.02 0.00 88 1013.6
20260902131304 82 0 6.0 9.0 0.00 0.02 0.00 88 1013.6
20260902131203 82 0 5.0 6.0 0.00 0.02 0.00 88 1013.6
20260902131102 82 0 5.0 7.0 0.00 0.02 0.00 88 1013.5
20260902131004 82 0 5.0 9.0 0.00 0.02 0.00 88 1013.6
20260902130903 82 0 5.0 9.0 0.00 0.02 0.00 88 1013.6
20260902130754 82 0 5.0 9.0 0.00 0.02 0.00 88 1013.5
20260902130639 82 0 6.0 9.0 0.00 0.02 0.00 88 1013.5
20260902130537 82 0 5.0 9.0 0.00 0.02 0.00 89 1013.5
20260902130432 82 0 5.0 9.0 0.00 0.02 0.00 89 1013.5
20260902130333 82 0 5.0 10.0 0.00 0.02 0.00 89 1013.5
20260902130204 82 0 6.0 10.0 0.00 0.02 0.00 89 1013.5
20260902130104 82 0 6.0 10.0 0.00 0.02 0.00 89 1013.5
20260902130003 82 0 5.0 10.0 0.00 0.02 0.00 89 1013.5
20260902125903 82 0 5.0 10.0 0.00 0.02 0.00 89 1013.4
20260902125802 82 0 4.0 10.0 0.00 0.02 0.00 89 1013.4
20260902125702 82 0 3.0 10.0 0.00 0.02 0.00 89 1013.4
20260902125603 82 0 4.0 10.0 0.00 0.02 0.00 89 1013.4
20260902125502 82 0 6.0 10.0 0.00 0.02 0.00 89 1013.4
20260902125402 82 0 5.0 10.0 0.00 0.02 0.00 89 1013.4
20260902125305 82 0 5.0 10.0 0.00 0.02 0.00 89 1013.3
20260902125202 82 0 6.0 11.0 0.00 0.02 0.00 89 1013.3
20260902125101 82 0 5.0 11.0 0.00 0.02 0.00 89 1013.3
20260902125002 82 0 4.0 11.0 0.00 0.02 0.00 89 1013.3
20260902124901 82 0 5.0 11.0 0.00 0.02 0.00 89 1013.3
20260902124802 82 0 5.0 11.0 0.00 0.02 0.00 89 1013.3
20260902124702 82 0 6.0 11.0 0.00 0.02 0.00 89 1013.3
20260902124602 82 0 6.0 11.0 0.00 0.02 0.00 89 1013.3
20260902124502 82 0 6.0 11.0 0.00 0.02 0.00 89 1013.3
20260902124401 82 0 7.0 11.0 0.00 0.02 0.00 89 1013.2
20260902124303 82 0 6.0 11.0 0.00 0.02 0.00 89 1013.2
20260902124201 82 0 5.0 11.0 0.00 0.02 0.00 89 1013.3
20260902124103 82 0 5.0 10.0 0.00 0.02 0.00 89 1013.2
20260902124001 82 0 5.0 12.0 0.00 0.02 0.00 89 1013.2
20260902123902 82 0 5.0 14.0 0.00 0.02 0.00 89 1013.1
20260902123803 82 0 5.0 14.0 0.00 0.02 0.00 89 1013.0
20260902123700 82 0 6.0 14.0 0.00 0.02 0.00 89 1013.2
20260902123602 82 0 6.0 14.0 0.00 0.02 0.00 89 1013.0
20260902123500 82 0 6.0 14.0 0.00 0.02 0.00 89 1013.0
20260902123402 82 0 5.0 14.0 0.00 0.02 0.00 89 1013.0
20260902123305 82 0 4.0 14.0 0.00 0.02 0.00 89 1013.0
20260902123200 82 0 7.0 14.0 0.00 0.02 0.00 89 1013.0
20260902123101 82 0 9.0 14.0 0.00 0.02 0.00 89 1013.0
20260902123001 82 0 8.0 14.0 0.00 0.02 0.00 89 1012.9
20260902122902 82 0 5.0 10.0 0.00 0.02 0.00 89 1012.9
20260902122803 82 0 4.0 9.0 0.00 0.02 0.00 89 1012.8
20260902122700 82 0 4.0 10.0 0.00 0.02 0.00 89 1012.8
20260902122601 82 0 3.0 10.0 0.00 0.02 0.00 89 1012.8
20260902122502 82 0 4.0 11.0 0.00 0.02 0.00 89 1012.8
20260902122401 82 0 5.0 11.0 0.00 0.02 0.00 89 1012.7
20260902122305 82 0 6.0 11.0 0.00 0.02 0.00 89 1012.7
20260902122200 82 0 6.0 11.0 0.00 0.02 0.00 89 1012.7
20260902122100 82 0 6.0 12.0 0.00 0.02 0.00 89 1012.7
20260902122002 82 0 6.0 12.0 0.00 0.02 0.00 89 1012.6
20260902121900 82 0 6.0 12.0 0.00 0.02 0.00 89 1012.5
20260902121801 82 0 6.0 12.0 0.00 0.02 0.00 89 1012.5
20260902121702 82 0 7.0 12.0 0.00 0.02 0.00 89 1012.4
20260902121600 82 0 8.0 12.0 0.00 0.02 0.00 89 1012.4
20260902121501 82 0 7.0 12.0 0.00 0.02 0.00 89 1012.4
20260902121402 82 0 4.0 12.0 0.00 0.02 0.00 89 1012.3
20260902121303 82 0 6.0 12.0 0.00 0.02 0.00 89 1012.3
20260902121202 82 0 7.0 12.0 0.00 0.02 0.00 89 1012.2
20260902121102 82 0 8.0 11.0 0.00 0.02 0.00 89 1012.3
20260902121001 82 0 7.0 11.0 0.00 0.02 0.00 89 1012.2
20260902120901 82 0 6.0 11.0 0.00 0.02 0.00 89 1012.2
20260902120801 82 0 6.0 11.0 0.00 0.02 0.00 89 1012.2
20260902120701 82 0 7.0 11.0 0.00 0.02 0.00 89 1012.2
20260902120600 82 0 6.0 11.0 0.00 0.02 0.00 89 1012.2
20260902120500 82 0 4.0 11.0 0.00 0.02 0.00 89 1012.2
20260902120400 82 0 4.0 11.0 0.00 0.02 0.00 89 1012.2
20260902120301 82 0 6.0 11.0 0.00 0.02 0.00 89 1012.1
20260902120200 82 0 6.0 11.0 0.00 0.02 0.00 89 1012.1
20260902120001 82 0 4.0 7.0 0.00 0.02 0.00 89 1012.1
20260902115901 82 0 5.0 7.0 0.00 0.02 0.00 89 1012.1
20260902115800 82 0 5.0 7.0 0.00 0.02 0.00 89 1012.2
20260902115701 82 0 6.0 9.0 0.00 0.02 0.00 89 1012.2
20260902115601 82 0 4.0 9.0 0.00 0.02 0.00 89 1012.2
20260902115501 82 0 4.0 9.0 0.00 0.02 0.00 89 1012.2
20260902115401 82 0 4.0 9.0 0.00 0.02 0.00 89 1012.2
20260902115301 82 0 4.0 9.0 0.00 0.02 0.00 89 1012.3
20260902115200 82 0 4.0 9.0 0.00 0.02 0.00 89 1012.3
20260902115101 82 0 9.0 9.0 0.00 0.02 0.00 88 1012.3
20260902115001 82 0 9.0 9.0 0.00 0.02 0.00 88 1012.2
20260902114901 82 0 9.0 9.0 0.00 0.02 0.00 88 1012.2
20260902114801 82 0 9.0 9.0 0.00 0.02 0.00 88 1012.2
20260902114700 82 0 4.0 5.0 0.00 0.02 0.00 88 1012.2
20260902114601 82 0 4.0 7.0 0.00 0.02 0.00 88 1012.3
20260902114500 82 0 4.0 10.0 0.00 0.02 0.00 88 1012.3
20260902114400 82 0 4.0 10.0 0.00 0.02 0.00 88 1012.3
20260902114259 82 0 3.0 11.0 0.00 0.02 0.00 88 1012.3
20260902114201 82 0 6.0 11.0 0.00 0.02 0.00 88 1012.3
20260902114101 82 0 6.0 11.0 0.00 0.02 0.00 88 1012.3
20260902114001 82 0 6.0 11.0 0.00 0.02 0.00 88 1012.3
20260902113901 82 0 6.0 11.0 0.00 0.02 0.00 88 1012.2
20260902113800 82 0 6.0 11.0 0.00 0.02 0.00 88 1012.2
20260902113659 82 0 7.0 11.0 0.00 0.02 0.00 88 1012.2
20260902113559 82 0 7.0 11.0 0.00 0.02 0.00 88 1012.1
20260902113500 82 0 7.0 11.0 0.00 0.02 0.00 88 1012.1
20260902113359 82 0 6.0 11.0 0.00 0.02 0.00 88 1012.2
20260902113301 82 0 5.0 11.0 0.00 0.02 0.00 88 1012.1
20260902113202 82 0 6.0 11.0 0.00 0.02 0.00 88 1012.1
20260902113100 82 0 7.0 11.0 0.00 0.02 0.00 88 1012.2
20260902113000 82 0 8.0 10.0 0.00 0.02 0.00 88 1012.2
20260902112900 82 0 6.0 10.0 0.00 0.02 0.00 88 1012.2
20260902112801 82 0 6.0 10.0 0.00 0.02 0.00 88 1012.2
20260902112700 82 0 6.0 10.0 0.00 0.02 0.00 88 1012.2
20260902112600 82 0 6.0 10.0 0.00 0.02 0.00 88 1012.2
20260902112500 82 0 6.0 10.0 0.00 0.02 0.00 88 1012.2
20260902112401 82 0 6.0 9.0 0.00 0.02 0.00 88 1012.2
20260902112259 82 0 5.0 7.0 0.00 0.02 0.00 88 1012.2
20260902112201 82 0 4.0 6.0 0.00 0.02 0.00 88 1012.3
20260902112100 82 0 3.0 7.0 0.00 0.02 0.00 88 1012.2
20260902112000 82 0 3.0 7.0 0.00 0.02 0.00 88 1012.2
20260902111900 82 0 3.0 7.0 0.00 0.02 0.00 88 1012.2
20260902111801 82 0 3.0 7.0 0.00 0.02 0.00 88 1012.2
20260902111659 82 0 2.0 9.0 0.00 0.02 0.00 88 1012.2
20260902111600 82 0 5.0 9.0 0.00 0.02 0.00 88 1012.2
20260902111500 82 0 5.0 9.0 0.00 0.02 0.00 88 1012.2
20260902111400 82 0 5.0 9.0 0.00 0.02 0.00 88 1012.2
20260902111301 82 0 5.0 9.0 0.00 0.02 0.00 88 1012.2
20260902111158 82 0 4.0 9.0 0.00 0.02 0.00 88 1012.2
20260902111100 82 0 5.0 9.0 0.00 0.02 0.00 88 1012.2
20260902110959 82 0 5.0 9.0 0.00 0.02 0.00 88 1012.2
20260902110900 82 0 6.0 9.0 0.00 0.02 0.00 88 1012.2
20260902110800 82 0 6.0 10.0 0.00 0.02 0.00 88 1012.1
20260902110657 82 0 6.0 10.0 0.00 0.02 0.00 88 1012.2
20260902110555 82 0 6.0 10.0 0.00 0.02 0.00 88 1012.2
20260902110433 82 0 6.0 10.0 0.00 0.02 0.00 88 1012.2
20260902110332 82 0 6.0 10.0 0.00 0.02 0.00 88 1012.2
20260902110203 82 0 6.0 10.0 0.00 0.02 0.00 88 1012.2
20260902110105 82 0 7.0 10.0 0.00 0.02 0.00 88 1012.2
20260902110005 82 0 7.0 10.0 0.00 0.02 0.00 88 1012.2
20260902105903 82 0 7.0 10.0 0.00 0.02 0.00 88 1012.2
20260902105802 82 0 6.0 10.0 0.00 0.02 0.00 88 1012.3
20260902105704 82 0 4.0 9.0 0.00 0.02 0.00 88 1012.2
20260902105602 82 0 5.0 9.0 0.00 0.02 0.00 88 1012.2
20260902105458 82 241 6.0 9.0 0.00 0.02 0.00 88 1012.3
20260902105358 82 0 6.0 9.0 0.00 0.02 0.00 88 1012.3
20260902105258 82 0 5.0 7.0 0.00 0.02 0.00 88 1012.3
20260902105158 82 0 4.0 7.0 0.00 0.02 0.00 88 1012.3
20260902105058 82 0 5.0 7.0 0.00 0.02 0.00 88 1012.4
20260902105000 82 0 5.0 7.0 0.00 0.02 0.00 88 1012.4
20260902104859 82 0 5.0 7.0 0.00 0.02 0.00 88 1012.4
20260902104759 82 0 5.0 7.0 0.00 0.02 0.00 88 1012.4
20260902104659 82 0 5.0 6.0 0.00 0.02 0.00 88 1012.4
20260902104600 82 0 4.0 6.0 0.00 0.02 0.00 88 1012.5
20260902104459 82 0 4.0 6.0 0.00 0.02 0.00 88 1012.5
20260902104358 82 0 4.0 6.0 0.00 0.02 0.00 88 1012.4
20260902104257 82 0 4.0 6.0 0.00 0.02 0.00 88 1012.4
20260902104158 82 0 4.0 6.0 0.00 0.02 0.00 88 1012.4
20260902104057 82 0 4.0 6.0 0.00 0.02 0.00 88 1012.4
20260902103958 82 0 4.0 6.0 0.00 0.02 0.00 88 1012.4
20260902103857 82 0 4.0 6.0 0.00 0.02 0.00 88 1012.4
20260902103732 82 0 5.0 6.0 0.00 0.02 0.00 88 1012.4
20260902103619 82 0 4.0 6.0 0.00 0.02 0.00 88 1012.4
20260902103518 82 0 4.0 6.0 0.00 0.02 0.00 88 1012.4
20260902103418 82 0 5.0 6.0 0.00 0.02 0.00 88 1012.5
20260902103317 82 0 4.0 6.0 0.00 0.02 0.00 88 1012.4
20260902103209 82 0 4.0 6.0 0.00 0.02 0.00 88 1012.4
20260902103108 82 0 3.0 6.0 0.00 0.02 0.00 88 1012.4
20260902103007 82 0 3.0 6.0 0.00 0.02 0.00 88 1012.4
20260902102904 82 0 3.0 6.0 0.00 0.02 0.00 88 1012.4
20260902102804 82 0 4.0 7.0 0.00 0.02 0.00 88 1012.4
20260902102703 82 0 4.0 7.0 0.00 0.02 0.00 88 1012.4
20260902102604 82 0 4.0 7.0 0.00 0.02 0.00 88 1012.4
20260902102505 82 0 4.0 10.0 0.00 0.02 0.00 88 1012.3
20260902102404 82 0 3.0 10.0 0.00 0.02 0.00 88 1012.3
20260902102307 82 0 2.0 10.0 0.00 0.02 0.00 88 1012.4
20260902102204 82 0 2.0 10.0 0.00 0.02 0.00 88 1012.3
20260902102101 82 0 3.0 10.0 0.00 0.02 0.00 88 1012.2
20260902102004 82 0 4.0 10.0 0.00 0.02 0.00 88 1012.3
20260902101902 82 0 5.0 10.0 0.00 0.02 0.00 88 1012.3
20260902101803 82 0 4.0 10.0 0.00 0.02 0.00 88 1012.2
20260902101702 82 0 5.0 10.0 0.00 0.02 0.00 88 1012.3
20260902101603 82 0 5.0 10.0 0.00 0.02 0.00 87 1012.2
20260902101504 82 0 5.0 7.0 0.00 0.02 0.00 87 1012.3
20260902101404 82 0 5.0 7.0 0.00 0.02 0.00 87 1012.3
20260902101303 82 0 4.0 7.0 0.00 0.02 0.00 87 1012.2
20260902101202 82 0 4.0 7.0 0.00 0.02 0.00 87 1012.2
20260902101103 82 0 4.0 7.0 0.00 0.02 0.00 87 1012.2
20260902101005 82 0 5.0 7.0 0.00 0.02 0.00 87 1012.1
20260902100902 82 0 6.0 7.0 0.00 0.02 0.00 87 1012.1
20260902100803 82 0 5.0 7.0 0.00 0.02 0.00 87 1012.2
20260902100704 82 0 4.0 7.0 0.00 0.02 0.00 87 1012.1
20260902100603 82 0 4.0 9.0 0.00 0.02 0.00 87 1012.1
20260902100504 82 0 5.0 12.0 0.00 0.02 0.00 87 1012.0
20260902100404 82 0 4.0 12.0 0.00 0.02 0.00 87 1012.1
20260902100304 82 0 4.0 12.0 0.00 0.02 0.00 87 1012.1
20260902100204 82 0 5.0 14.0 0.00 0.02 0.00 87 1012.1
20260902100004 82 0 5.0 14.0 0.00 0.02 0.00 87 1012.1
20260902095901 82 0 5.0 14.0 0.00 0.02 0.00 87 1012.1
20260902095804 82 0 5.0 14.0 0.00 0.02 0.00 87 1012.1
20260902095703 82 0 7.0 14.0 0.00 0.02 0.00 87 1012.1
20260902095556 82 0 7.0 14.0 0.00 0.02 0.00 87 1012.1
20260902095457 82 0 8.0 14.0 0.00 0.02 0.00 87 1012.1
20260902095356 82 0 9.0 14.0 0.00 0.02 0.00 87 1012.1
20260902095257 82 0 6.0 14.0 0.00 0.02 0.00 87 1012.1
20260902095155 82 0 5.0 14.0 0.00 0.02 0.00 87 1012.0
20260902095057 82 0 6.0 14.0 0.00 0.02 0.00 87 1012.0
20260902094956 82 0 6.0 14.0 0.00 0.02 0.00 87 1012.0
20260902094855 82 0 6.0 14.0 0.00 0.02 0.00 87 1012.0
20260902094757 82 0 6.0 14.0 0.00 0.02 0.00 87 1011.9
20260902094655 82 0 6.0 14.0 0.00 0.02 0.00 87 1012.0
20260902094555 82 0 6.0 14.0 0.00 0.02 0.00 87 1012.0
20260902094456 82 0 9.0 14.0 0.00 0.02 0.00 87 1012.0
20260902094356 82 0 9.0 14.0 0.00 0.02 0.00 87 1012.0
20260902094258 82 0 7.0 11.0 0.00 0.02 0.00 87 1012.0
20260902094155 82 0 6.0 11.0 0.00 0.02 0.00 87 1012.0
20260902094056 82 0 7.0 11.0 0.00 0.02 0.00 87 1012.0
20260902093956 82 0 6.0 11.0 0.00 0.02 0.00 87 1012.0
20260902093857 82 0 6.0 11.0 0.00 0.02 0.00 87 1012.0
20260902093755 82 0 6.0 11.0 0.00 0.02 0.00 87 1012.1
20260902093657 82 0 6.0 11.0 0.00 0.02 0.00 87 1012.0
20260902093556 82 0 6.0 11.0 0.00 0.02 0.00 87 1012.1
20260902093455 82 0 6.0 11.0 0.00 0.02 0.00 87 1012.1
20260902093355 82 0 5.0 10.0 0.00 0.02 0.00 87 1012.1
20260902093256 82 0 6.0 10.0 0.00 0.02 0.00 87 1012.1
20260902093156 82 0 6.0 10.0 0.00 0.02 0.00 87 1012.2
20260902093055 82 0 5.0 10.0 0.00 0.02 0.00 87 1012.2
20260902092955 82 0 5.0 10.0 0.00 0.02 0.00 87 1012.2
20260902092856 82 0 4.0 10.0 0.00 0.02 0.00 87 1012.2
20260902092755 82 0 5.0 10.0 0.00 0.02 0.00 87 1012.2
20260902092657 82 0 6.0 10.0 0.00 0.02 0.00 87 1012.2
20260902092556 82 0 6.0 10.0 0.00 0.02 0.00 87 1012.3
20260902092455 82 0 5.0 10.0 0.00 0.02 0.00 87 1012.2
20260902092354 82 0 6.0 10.0 0.00 0.02 0.00 87 1012.2
20260902092257 82 0 6.0 10.0 0.00 0.02 0.00 86 1012.2
20260902092155 82 0 6.0 10.0 0.00 0.02 0.00 86 1012.2
20260902092055 82 0 6.0 10.0 0.00 0.02 0.00 86 1012.2
20260902091955 82 0 6.0 11.0 0.00 0.02 0.00 86 1012.2
20260902091856 82 0 8.0 12.0 0.00 0.02 0.00 86 1012.1
20260902091755 82 0 7.0 12.0 0.00 0.02 0.00 86 1012.2
20260902091655 82 0 6.0 12.0 0.00 0.02 0.00 86 1012.2
20260902091555 82 0 6.0 12.0 0.00 0.02 0.00 86 1012.2
20260902091455 82 0 8.0 12.0 0.00 0.02 0.00 86 1012.1
20260902091356 82 0 6.0 12.0 0.00 0.02 0.00 86 1012.1
20260902091255 82 0 6.0 12.0 0.00 0.02 0.00 86 1012.2
20260902091156 82 0 6.0 12.0 0.00 0.02 0.00 86 1012.1
20260902091054 82 0 7.0 12.0 0.00 0.02 0.00 86 1012.1
20260902090955 82 0 8.0 12.0 0.00 0.02 0.00 86 1012.1
20260902090854 82 0 7.0 11.0 0.00 0.02 0.00 86 1012.0
20260902090757 82 0 6.0 11.0 0.00 0.02 0.00 86 1012.1
20260902090656 82 0 5.0 9.0 0.00 0.02 0.00 86 1012.0
20260902090556 82 0 5.0 9.0 0.00 0.02 0.00 86 1012.0
20260902090455 82 0 5.0 10.0 0.00 0.02 0.00 86 1012.0
20260902090356 82 0 6.0 10.0 0.00 0.02 0.00 86 1012.0
20260902090256 82 0 6.0 10.0 0.00 0.02 0.00 86 1011.9
20260902090154 82 0 5.0 10.0 0.00 0.02 0.00 86 1011.9
20260902090055 82 0 6.0 10.0 0.00 0.02 0.00 86 1012.0
20260902085955 82 0 6.0 10.0 0.00 0.02 0.00 86 1012.0
20260902085855 82 0 6.0 10.0 0.00 0.02 0.00 86 1012.0
20260902085754 83 0 6.0 10.0 0.00 0.02 0.00 86 1012.0
20260902085654 82 0 7.0 10.0 0.00 0.02 0.00 86 1012.0
20260902085555 83 0 6.0 10.0 0.00 0.02 0.00 86 1012.0
20260902085455 82 0 4.0 10.0 0.00 0.02 0.00 86 1012.0
20260902085355 82 0 4.0 10.0 0.00 0.02 0.00 86 1012.0
20260902085254 83 0 5.0 11.0 0.00 0.02 0.00 86 1012.0
20260902085154 83 0 6.0 11.0 0.00 0.02 0.00 86 1012.0
20260902085055 83 0 6.0 11.0 0.00 0.02 0.00 86 1012.0
20260902084954 83 0 6.0 11.0 0.00 0.02 0.00 86 1012.1
20260902084854 83 0 7.0 11.0 0.00 0.02 0.00 86 1012.0
20260902084755 83 0 6.0 11.0 0.00 0.02 0.00 86 1012.0
20260902084655 83 0 5.0 11.0 0.00 0.02 0.00 86 1012.0
20260902084553 83 0 6.0 11.0 0.00 0.02 0.00 86 1012.0
20260902084453 83 0 7.0 11.0 0.00 0.02 0.00 86 1012.0
20260902084356 83 0 8.0 11.0 0.00 0.02 0.00 86 1012.0
20260902084255 83 0 7.0 10.0 0.00 0.02 0.00 86 1012.0
20260902084155 83 0 4.0 10.0 0.00 0.02 0.00 86 1012.0
20260902084055 83 0 4.0 11.0 0.00 0.02 0.00 86 1012.0
20260902083954 83 0 4.0 11.0 0.00 0.02 0.00 86 1012.0
20260902083855 83 0 4.0 11.0 0.00 0.02 0.00 86 1012.0
20260902083755 83 0 4.0 11.0 0.00 0.02 0.00 86 1012.1
20260902083655 83 0 6.0 11.0 0.00 0.02 0.00 86 1012.0
20260902083554 83 0 6.0 11.0 0.00 0.02 0.00 86 1012.1
20260902083453 83 0 5.0 11.0 0.00 0.02 0.00 85 1012.1
20260902083354 83 0 5.0 11.0 0.00 0.02 0.00 85 1012.1
20260902083253 83 0 7.0 11.0 0.00 0.02 0.00 85 1012.1
20260902083154 83 0 7.0 11.0 0.00 0.02 0.00 85 1012.2
20260902083054 83 0 7.0 10.0 0.00 0.02 0.00 85 1012.2
20260902082954 83 0 6.0 10.0 0.00 0.02 0.00 85 1012.1
20260902082853 83 0 6.0 10.0 0.00 0.02 0.00 85 1012.2
20260902082754 83 0 5.0 10.0 0.00 0.02 0.00 85 1012.2
20260902082654 83 0 4.0 10.0 0.00 0.02 0.00 85 1012.1
20260902082555 83 0 6.0 10.0 0.00 0.02 0.00 85 1012.1
20260902082454 83 0 6.0 10.0 0.00 0.02 0.00 85 1012.1
20260902082355 83 0 6.0 10.0 0.00 0.02 0.00 85 1012.2
20260902082255 83 0 6.0 10.0 0.00 0.02 0.00 85 1012.2
20260902082154 83 0 5.0 10.0 0.00 0.02 0.00 85 1012.1
20260902082053 83 0 6.0 11.0 0.00 0.02 0.00 85 1012.1
20260902081955 83 0 7.0 11.0 0.00 0.02 0.00 85 1012.2
20260902081854 83 0 6.0 11.0 0.00 0.02 0.00 85 1012.2
20260902081753 83 0 5.0 11.0 0.00 0.02 0.00 85 1012.1
20260902081654 83 0 4.0 11.0 0.00 0.02 0.00 85 1012.2
20260902081556 83 0 4.0 11.0 0.00 0.02 0.00 85 1012.1
20260902081455 83 0 3.0 11.0 0.00 0.02 0.00 85 1012.2
20260902081353 83 0 3.0 11.0 0.00 0.02 0.00 85 1012.1
20260902081253 83 0 6.0 11.0 0.00 0.02 0.00 85 1012.2
20260902081153 83 0 6.0 11.0 0.00 0.02 0.00 85 1012.2
20260902081054 83 0 4.0 10.0 0.00 0.02 0.00 85 1012.2
20260902080953 83 0 4.0 10.0 0.00 0.02 0.00 85 1012.2
20260902080854 83 0 5.0 10.0 0.00 0.02 0.00 85 1012.1
20260902080754 83 0 6.0 10.0 0.00 0.02 0.00 85 1012.1
20260902080653 83 0 6.0 10.0 0.00 0.02 0.00 85 1012.2
20260902080554 83 0 6.0 10.0 0.00 0.02 0.00 85 1012.1
20260902080453 83 0 6.0 10.0 0.00 0.02 0.00 85 1012.1
20260902080354 83 0 5.0 10.0 0.00 0.02 0.00 85 1012.1
20260902080254 83 0 4.0 9.0 0.00 0.02 0.00 85 1012.1
20260902080152 83 0 4.0 9.0 0.00 0.02 0.00 85 1012.1
20260902080053 83 0 2.0 10.0 0.00 0.02 0.00 84 1012.1
20260902075954 83 0 5.0 10.0 0.00 0.02 0.00 84 1012.1
20260902075854 83 0 5.0 10.0 0.00 0.02 0.00 84 1012.1
20260902075754 83 0 5.0 11.0 0.00 0.02 0.00 84 1012.1
20260902075654 83 0 5.0 11.0 0.00 0.02 0.00 84 1012.1
20260902075554 83 0 6.0 11.0 0.00 0.02 0.00 84 1012.1
20260902075454 83 0 5.0 11.0 0.00 0.02 0.00 84 1012.1
20260902075352 83 0 5.0 11.0 0.00 0.02 0.00 84 1012.2
20260902075253 83 0 6.0 11.0 0.00 0.02 0.00 84 1012.2
20260902075153 83 0 6.0 11.0 0.00 0.02 0.00 84 1012.2
20260902075052 83 0 6.0 11.0 0.00 0.02 0.00 84 1012.1
20260902074952 83 0 6.0 11.0 0.00 0.02 0.00 84 1012.1
20260902074852 83 0 6.0 11.0 0.00 0.02 0.00 84 1012.2
20260902074753 83 0 6.0 11.0 0.00 0.02 0.00 84 1012.2
20260902074655 83 0 4.0 11.0 0.00 0.02 0.00 84 1012.2
20260902074552 83 0 4.0 11.0 0.00 0.02 0.00 84 1012.2
20260902074452 83 0 6.0 11.0 0.00 0.02 0.00 84 1012.2
20260902074352 83 0 7.0 11.0 0.00 0.02 0.00 84 1012.2
20260902074252 83 0 5.0 10.0 0.00 0.02 0.00 84 1012.2
20260902074153 83 0 5.0 9.0 0.00 0.02 0.00 84 1012.2
20260902074052 83 0 6.0 9.0 0.00 0.02 0.00 84 1012.2
20260902073952 83 0 6.0 9.0 0.00 0.02 0.00 84 1012.2
20260902073852 83 0 5.0 9.0 0.00 0.02 0.00 84 1012.2
20260902073752 83 0 6.0 9.0 0.00 0.02 0.00 84 1012.2
20260902073653 83 0 5.0 9.0 0.00 0.02 0.00 84 1012.3
20260902073553 83 0 4.0 5.0 0.00 0.02 0.00 84 1012.3
20260902073454 83 0 5.0 5.0 0.00 0.02 0.00 84 1012.2
20260902073354 0 0.0 0.0 0.00 0.02 0.00 1012.3
20260902073253 0 0.0 0.0 0.00 0.02 0.00 1012.2
20260902073154 0 0.0 0.0 0.00 0.02 0.00 1012.3
20260902073052 0 0.0 0.0 0.00 0.02 0.00 1012.3
20260902072951 0 0 3.0 3.0 0.00 0.02 0.00 1012.4
20260902072833 83 0 3.0 3.0 0.00 0.02 0.00 84 1012.3
20260902072731 83 0 3.0 4.0 0.00 0.02 0.00 84 1012.3
20260902072632 83 0 3.0 4.0 0.00 0.02 0.00 84 1012.3
20260902072532 83 0 3.0 4.0 0.00 0.02 0.00 84 1012.4
20260902072432 83 0 3.0 4.0 0.00 0.02 0.00 84 1012.3
20260902072332 83 0 3.0 4.0 0.00 0.02 0.00 84 1012.4
20260902072232 83 0 3.0 6.0 0.00 0.02 0.00 84 1012.3
20260902072132 83 0 3.0 7.0 0.00 0.02 0.00 84 1012.4
20260902072033 83 0 3.0 7.0 0.00 0.02 0.00 84 1012.3
20260902071932 83 0 3.0 7.0 0.00 0.02 0.00 84 1012.4
20260902071831 83 0 3.0 7.0 0.00 0.02 0.00 84 1012.3
20260902071731 83 0 3.0 7.0 0.00 0.02 0.00 84 1012.3
20260902071632 83 0 5.0 7.0 0.00 0.02 0.00 84 1012.3
20260902071532 83 0 5.0 7.0 0.00 0.02 0.00 84 1012.3
20260902071432 83 0 5.0 7.0 0.00 0.02 0.00 84 1012.2
20260902071332 83 0 5.0 7.0 0.00 0.02 0.00 84 1012.3
20260902071232 83 0 4.0 7.0 0.00 0.02 0.00 84 1012.2
20260902071132 83 0 4.0 6.0 0.00 0.02 0.00 84 1012.3
20260902071032 83 0 4.0 6.0 0.00 0.02 0.00 84 1012.2
20260902070933 83 0 4.0 6.0 0.00 0.02 0.00 83 1012.2
20260902070832 83 0 4.0 6.0 0.00 0.02 0.00 83 1012.2
20260902070731 83 0 3.0 6.0 0.00 0.02 0.00 83 1012.2
20260902070631 83 0 4.0 6.0 0.00 0.02 0.00 83 1012.2
20260902070532 83 0 4.0 6.0 0.00 0.02 0.00 83 1012.2
20260902070431 83 0 4.0 9.0 0.00 0.02 0.00 83 1012.2
20260902070332 83 0 3.0 9.0 0.00 0.02 0.00 83 1012.2
20260902070232 83 0 3.0 9.0 0.00 0.02 0.00 83 1012.2
20260902070105 83 0 3.0 9.0 0.00 0.02 0.00 83 1012.1
20260902070004 83 0 4.0 9.0 0.00 0.02 0.00 83 1012.2
20260902065903 83 0 5.0 9.0 0.00 0.02 0.00 83 1012.1
20260902065802 83 0 4.0 9.0 0.00 0.02 0.00 83 1012.2
20260902065704 83 0 4.0 9.0 0.00 0.02 0.00 83 1012.1
20260902065602 83 0 5.0 9.0 0.00 0.02 0.00 83 1012.2
20260902065505 83 0 5.0 9.0 0.00 0.02 0.00 83 1012.2
20260902065404 83 0 5.0 7.0 0.00 0.02 0.00 82 1012.2
20260902065306 83 0 5.0 7.0 0.00 0.02 0.00 82 1012.1
20260902065202 83 0 5.0 9.0 0.00 0.02 0.00 82 1012.2
20260902065103 83 0 6.0 9.0 0.00 0.02 0.00 82 1012.2
20260902065004 83 0 5.0 9.0 0.00 0.02 0.00 82 1012.1
20260902064902 83 0 5.0 9.0 0.00 0.02 0.00 82 1012.1
20260902064802 83 0 4.0 9.0 0.00 0.02 0.00 82 1012.1
20260902064702 83 0 4.0 9.0 0.00 0.02 0.00 82 1012.1
20260902064604 83 0 4.0 9.0 0.00 0.02 0.00 82 1012.1
20260902064505 83 0 4.0 9.0 0.00 0.02 0.00 82 1012.1
20260902064403 83 0 5.0 9.0 0.00 0.02 0.00 82 1012.1
20260902064304 83 0 6.0 9.0 0.00 0.02 0.00 82 1012.1
20260902064203 83 0 5.0 7.0 0.00 0.02 0.00 82 1012.1
20260902064102 83 0 5.0 7.0 0.00 0.02 0.00 81 1012.1
20260902064005 83 0 3.0 5.0 0.00 0.02 0.00 81 1012.2
20260902063903 83 0 3.0 5.0 0.00 0.02 0.00 81 1012.2
20260902063804 83 0 3.0 5.0 0.00 0.02 0.00 81 1012.1
20260902063702 83 0 3.0 5.0 0.00 0.02 0.00 81 1012.1
20260902063602 83 0 4.0 6.0 0.00 0.02 0.00 81 1012.1
20260902063503 83 0 5.0 6.0 0.00 0.02 0.00 81 1012.1
20260902063402 83 0 5.0 6.0 0.00 0.02 0.00 80 1012.2
20260902063305 83 0 3.0 6.0 0.00 0.02 0.00 80 1012.2
20260902063203 83 0 3.0 6.0 0.00 0.02 0.00 80 1012.2
20260902063104 83 0 3.0 6.0 0.00 0.02 0.00 80 1012.2
20260902063004 83 0 3.0 6.0 0.00 0.02 0.00 80 1012.2
20260902062904 83 0 4.0 6.0 0.00 0.02 0.00 80 1012.1
20260902062803 83 0 4.0 6.0 0.00 0.02 0.00 79 1012.1
20260902062703 83 0 4.0 6.0 0.00 0.02 0.00 79 1012.1
20260902062603 83 0 4.0 6.0 0.00 0.02 0.00 79 1012.2
20260902062503 83 0 5.0 6.0 0.00 0.02 0.00 79 1012.1
20260902062402 83 0 4.0 6.0 0.00 0.02 0.00 79 1012.1
20260902062306 83 0 4.0 5.0 0.00 0.02 0.00 79 1012.0
20260902062202 83 0 3.0 5.0 0.00 0.02 0.00 79 1012.1
20260902062104 83 0 4.0 5.0 0.00 0.02 0.00 79 1012.0
20260902062002 83 0 4.0 5.0 0.00 0.02 0.00 79 1012.0
20260902061903 83 0 4.0 5.0 0.00 0.02 0.00 79 1012.0
20260902061802 83 0 3.0 5.0 0.00 0.02 0.00 79 1012.0
20260902061702 83 0 3.0 5.0 0.00 0.02 0.00 79 1012.1
20260902061602 83 0 3.0 5.0 0.00 0.02 0.00 78 1012.1
20260902061503 83 0 3.0 5.0 0.00 0.02 0.00 78 1012.2
20260902061404 83 0 2.0 3.0 0.00 0.02 0.00 78 1012.1
20260902061302 83 0 2.0 4.0 0.00 0.02 0.00 78 1012.2
20260902061204 83 0 2.0 4.0 0.00 0.02 0.00 78 1012.2
20260902061103 83 0 2.0 4.0 0.00 0.02 0.00 78 1012.2
20260902061003 83 0 2.0 5.0 0.00 0.02 0.00 78 1012.1
20260902060902 83 0 1.0 5.0 0.00 0.02 0.00 78 1012.2
20260902060802 83 0 1.0 5.0 0.00 0.02 0.00 78 1012.1
20260902060701 83 0 1.0 5.0 0.00 0.02 0.00 78 1012.1
20260902060603 83 0 1.0 5.0 0.00 0.02 0.00 78 1012.1
20260902060454 83 0 2.0 5.0 0.00 0.02 0.00 78 1012.0
20260902060354 83 0 3.0 5.0 0.00 0.02 0.00 78 1012.1
20260902060249 83 0 3.0 5.0 0.00 0.02 0.00 78 1012.0
20260902060148 82 0 4.0 6.0 0.00 0.02 0.00 78 1012.0
20260902060046 82 0 3.0 6.0 0.00 0.02 0.00 78 1012.0
20260902055942 82 0 2.0 6.0 0.00 0.02 0.00 78 1012.0
20260902055834 82 0 3.0 6.0 0.00 0.02 0.00 78 1011.9
20260902055732 82 0 3.0 6.0 0.00 0.02 0.00 78 1011.9
20260902055632 82 0 3.0 6.0 0.00 0.02 0.00 78 1011.9
20260902055531 82 0 3.0 6.0 0.00 0.02 0.00 78 1011.9
20260902055432 82 0 4.0 6.0 0.00 0.02 0.00 78 1012.0
20260902055331 82 0 4.0 6.0 0.00 0.02 0.00 78 1011.9
20260902055231 82 0 3.0 6.0 0.00 0.02 0.00 78 1012.0
20260902055133 82 0 4.0 6.0 0.00 0.02 0.00 78 1012.0
20260902055032 82 0 4.0 6.0 0.00 0.02 0.00 79 1012.0
20260902054931 82 0 3.0 6.0 0.00 0.02 0.00 79 1011.9
20260902054832 82 0 4.0 7.0 0.00 0.02 0.00 79 1012.0
20260902054731 82 0 4.0 7.0 0.00 0.02 0.00 79 1012.0
20260902054632 82 0 4.0 7.0 0.00 0.02 0.00 79 1012.0
20260902054524 82 0 4.0 7.0 0.00 0.02 0.00 79 1011.9
20260902054419 82 0 4.0 7.0 0.00 0.02 0.00 79 1012.0
20260902054309 82 0 5.0 7.0 0.00 0.02 0.00 79 1012.0
20260902054208 82 0 5.0 7.0 0.00 0.02 0.00 79 1012.0
20260902054107 82 0 5.0 7.0 0.00 0.02 0.00 79 1012.0
20260902054003 82 0 5.0 7.0 0.00 0.02 0.00 79 1011.9
20260902053903 82 0 5.0 7.0 0.00 0.02 0.00 79 1011.9
20260902053803 82 0 4.0 7.0 0.00 0.02 0.00 79 1012.0
20260902053703 82 0 3.0 6.0 0.00 0.02 0.00 79 1011.9
20260902053603 82 0 4.0 6.0 0.00 0.02 0.00 79 1011.9
20260902053505 82 0 5.0 6.0 0.00 0.02 0.00 79 1011.9
20260902053403 82 0 2.0 5.0 0.00 0.02 0.00 79 1011.9
20260902053304 82 0 2.0 5.0 0.00 0.02 0.00 79 1012.0
20260902053203 82 0 4.0 5.0 0.00 0.02 0.00 79 1011.9
20260902053104 82 0 4.0 5.0 0.00 0.02 0.00 79 1011.9
20260902053003 82 0 4.0 5.0 0.00 0.02 0.00 79 1011.9
20260902052903 82 0 4.0 5.0 0.00 0.02 0.00 79 1011.9
20260902052804 82 0 4.0 5.0 0.00 0.02 0.00 79 1011.9
20260902052702 82 0 4.0 5.0 0.00 0.02 0.00 79 1012.0
20260902052602 82 0 4.0 5.0 0.00 0.02 0.00 79 1011.9
20260902052502 82 0 4.0 5.0 0.00 0.02 0.00 79 1011.9
20260902052402 82 0 4.0 5.0 0.00 0.02 0.00 79 1012.0
20260902052306 82 0 2.0 5.0 0.00 0.02 0.00 79 1011.9
20260902052204 82 0 2.0 5.0 0.00 0.02 0.00 79 1011.9
20260902052103 82 0 2.0 5.0 0.00 0.02 0.00 79 1012.0
20260902052004 82 0 2.0 5.0 0.00 0.02 0.00 79 1012.1
20260902051903 82 0 4.0 5.0 0.00 0.02 0.00 79 1012.1
20260902051804 82 0 4.0 5.0 0.00 0.02 0.00 79 1012.0
20260902051704 82 0 4.0 5.0 0.00 0.02 0.00 79 1012.0
20260902051603 82 0 4.0 5.0 0.00 0.02 0.00 79 1012.0
20260902051503 82 0 3.0 5.0 0.00 0.02 0.00 79 1012.0
20260902051402 82 0 3.0 5.0 0.00 0.02 0.00 79 1012.0
20260902051303 82 0 3.0 5.0 0.00 0.02 0.00 79 1012.1
20260902051203 82 0 2.0 5.0 0.00 0.02 0.00 80 1012.1
20260902051103 82 0 3.0 5.0 0.00 0.02 0.00 80 1012.0
20260902051002 82 0 3.0 5.0 0.00 0.02 0.00 80 1012.1
20260902050903 82 0 2.0 5.0 0.00 0.02 0.00 80 1012.1
20260902050802 82 0 2.0 5.0 0.00 0.02 0.00 80 1012.1
20260902050703 82 0 2.0 5.0 0.00 0.02 0.00 80 1012.2
20260902050603 82 0 3.0 5.0 0.00 0.02 0.00 80 1012.2
20260902050505 82 0 3.0 5.0 0.00 0.02 0.00 80 1012.2
20260902050404 82 0 4.0 5.0 0.00 0.02 0.00 80 1012.2
20260902050303 82 0 4.0 5.0 0.00 0.02 0.00 80 1012.2
20260902050202 82 0 3.0 5.0 0.00 0.02 0.00 80 1012.2
20260902050104 82 0 3.0 5.0 0.00 0.02 0.00 80 1012.2
20260902050006 82 0 4.0 5.0 0.00 0.02 0.00 80 1012.2
20260902045902 82 0 4.0 5.0 0.00 0.02 0.02 80 1012.2
20260902045803 82 0 4.0 5.0 0.00 0.02 0.02 80 1012.2
20260902045704 82 0 3.0 4.0 0.00 0.02 0.02 80 1012.2
20260902045604 82 0 3.0 5.0 0.00 0.02 0.02 80 1012.3
20260902045503 82 0 2.0 5.0 0.00 0.02 0.02 80 1012.3
20260902045403 82 0 2.0 5.0 0.00 0.02 0.02 80 1012.3
20260902045306 82 0 2.0 5.0 0.00 0.02 0.02 80 1012.4
20260902045203 82 0 2.0 5.0 0.00 0.02 0.02 80 1012.3
20260902045103 82 0 2.0 5.0 0.00 0.02 0.02 80 1012.3
20260902045004 82 0 2.0 5.0 0.00 0.02 0.02 80 1012.4
20260902044902 82 0 3.0 5.0 0.00 0.02 0.02 80 1012.4
20260902044802 82 0 3.0 5.0 0.00 0.02 0.02 80 1012.3
20260902044702 82 0 4.0 5.0 0.00 0.02 0.02 80 1012.3
20260902044603 82 0 4.0 5.0 0.00 0.02 0.02 80 1012.4
20260902044502 82 0 4.0 5.0 0.00 0.02 0.02 80 1012.3
20260902044403 82 0 4.0 5.0 0.00 0.02 0.02 80 1012.2
20260902044303 82 0 4.0 5.0 0.00 0.02 0.02 80 1012.3
20260902044203 82 0 4.0 5.0 0.00 0.02 0.02 80 1012.2
20260902044103 82 0 4.0 5.0 0.00 0.02 0.02 80 1012.3
20260902043958 82 0 3.0 5.0 0.00 0.02 0.02 80 1012.3
20260902043859 82 0 4.0 5.0 0.00 0.02 0.02 80 1012.4
20260902043746 82 0 4.0 5.0 0.00 0.02 0.02 80 1012.3
20260902043645 82 0 4.0 5.0 0.00 0.02 0.02 80 1012.4
20260902043544 82 0 4.0 5.0 0.00 0.02 0.02 80 1012.4
20260902043445 82 0 3.0 4.0 0.00 0.02 0.02 80 1012.4
20260902043344 82 0 3.0 4.0 0.00 0.02 0.02 80 1012.4
20260902043245 82 0 1.0 4.0 0.00 0.02 0.02 80 1012.3
20260902043145 82 0 0.0 4.0 0.00 0.02 0.02 80 1012.4
20260902043044 82 0 0.0 4.0 0.00 0.02 0.02 80 1012.4
20260902042944 82 0 0.0 4.0 0.00 0.02 0.02 80 1012.4
20260902042844 82 0 0.0 4.0 0.00 0.02 0.02 80 1012.4
20260902042746 82 0 1.0 4.0 0.00 0.02 0.02 80 1012.4
20260902042644 82 0 2.0 4.0 0.00 0.02 0.02 80 1012.4
20260902042545 82 0 2.0 4.0 0.00 0.02 0.02 80 1012.5
20260902042446 82 0 2.0 4.0 0.00 0.02 0.02 80 1012.4
20260902042346 82 0 2.0 4.0 0.00 0.02 0.02 80 1012.4
20260902042244 82 0 2.0 4.0 0.00 0.02 0.02 80 1012.4
20260902042145 82 0 2.0 4.0 0.00 0.02 0.02 81 1012.5
20260902042044 82 0 2.0 4.0 0.00 0.02 0.02 81 1012.4
20260902041945 82 0 2.0 4.0 0.00 0.02 0.02 81 1012.5
20260902041844 82 0 2.0 4.0 0.00 0.02 0.02 81 1012.4
20260902041746 82 0 2.0 4.0 0.00 0.02 0.02 81 1012.5
20260902041644 82 0 2.0 4.0 0.00 0.02 0.02 81 1012.4
20260902041544 82 0 3.0 4.0 0.00 0.02 0.02 81 1012.4
20260902041446 82 0 3.0 4.0 0.00 0.02 0.02 81 1012.5
20260902041345 82 0 2.0 5.0 0.00 0.02 0.02 81 1012.4
20260902041245 82 0 2.0 5.0 0.00 0.02 0.02 81 1012.4
20260902041144 82 0 3.0 5.0 0.00 0.02 0.02 81 1012.4
20260902041047 82 0 3.0 5.0 0.00 0.02 0.02 81 1012.4
20260902040944 82 0 3.0 5.0 0.00 0.02 0.02 81 1012.5
20260902040844 82 0 2.0 5.0 0.00 0.02 0.02 81 1012.5
20260902040744 82 0 2.0 5.0 0.00 0.02 0.02 81 1012.5
20260902040645 82 0 3.0 5.0 0.00 0.02 0.02 81 1012.5
20260902040544 82 0 3.0 5.0 0.00 0.02 0.02 81 1012.6
20260902040444 82 0 3.0 5.0 0.00 0.02 0.02 81 1012.5
20260902040346 82 0 2.0 5.0 0.00 0.02 0.02 81 1012.4
20260902040245 82 0 1.0 5.0 0.00 0.02 0.02 81 1012.5
20260902040146 82 0 1.0 5.0 0.00 0.02 0.02 81 1012.5
20260902040044 82 0 2.0 5.0 0.00 0.02 0.02 81 1012.6
20260902035946 82 0 3.0 5.0 0.00 0.02 0.02 81 1012.5